CW2988 Weather Reports


Display with metric or nautical units.
time (UTC)temp
F
wind
direction
speed
MPH
gust
MPH
rain 1hr
in
rain 24hr
in
rain mn
in
humidity
%
barometer
mb
20210617084822 70 127 2.0 7.0 0.00 0.00 0.00 63 1012.8
20210617084732 70 141 2.0 7.0 0.00 0.00 0.00 63 1012.8
20210617084631 70 134 3.0 7.0 0.00 0.00 0.00 63 1012.8
20210617084528 70 130 3.0 7.0 0.00 0.00 0.00 63 1012.8
20210617084426 70 120 3.0 7.0 0.00 0.00 0.00 63 1012.8
20210617084331 70 130 3.0 7.0 0.00 0.00 0.00 63 1012.8
20210617084233 70 132 3.0 7.0 0.00 0.00 0.00 63 1012.7
20210617084134 70 125 3.0 7.0 0.00 0.00 0.00 63 1012.6
20210617084037 70 98 3.0 7.0 0.00 0.00 0.00 63 1012.5
20210617083939 70 109 3.0 7.0 0.00 0.00 0.00 63 1012.5
20210617083841 70 133 3.0 7.0 0.00 0.00 0.00 63 1012.5
20210617083728 70 111 3.0 4.0 0.00 0.00 0.00 62 1012.5
20210617083630 70 115 3.0 4.0 0.00 0.00 0.00 62 1012.5
20210617083524 70 136 3.0 4.0 0.00 0.00 0.00 62 1012.4
20210617083425 70 134 3.0 4.0 0.00 0.00 0.00 62 1012.5
20210617083327 70 153 2.0 4.0 0.00 0.00 0.00 62 1012.4
20210617083230 70 117 2.0 5.0 0.00 0.00 0.00 62 1012.4
20210617083132 70 117 3.0 4.0 0.00 0.00 0.00 62 1012.5
20210617083037 70 113 3.0 4.0 0.00 0.00 0.00 62 1012.6
20210617082940 70 132 2.0 4.0 0.00 0.00 0.00 62 1012.6
20210617082841 70 135 2.0 5.0 0.00 0.00 0.00 62 1012.5
20210617082723 70 96 2.0 5.0 0.00 0.00 0.00 62 1012.6
20210617082626 70 87 2.0 6.0 0.00 0.00 0.00 62 1012.7
20210617082528 70 120 2.0 6.0 0.00 0.00 0.00 62 1012.7
20210617082435 70 130 2.0 6.0 0.00 0.00 0.00 62 1012.7
20210617082336 70 102 2.0 6.0 0.00 0.00 0.00 62 1012.7
20210617082238 70 112 2.0 6.0 0.00 0.00 0.00 62 1012.6
20210617082141 70 122 3.0 6.0 0.00 0.00 0.00 62 1012.5
20210617082024 70 95 3.0 6.0 0.00 0.00 0.00 62 1012.6
20210617081925 70 110 3.0 6.0 0.00 0.00 0.00 62 1012.5
20210617081832 70 128 3.0 6.0 0.00 0.00 0.00 62 1012.6
20210617081732 70 119 3.0 6.0 0.00 0.00 0.00 62 1012.6
20210617081634 70 126 2.0 6.0 0.00 0.00 0.00 62 1012.5
20210617081537 70 111 3.0 6.0 0.00 0.00 0.00 62 1012.6
20210617081439 70 121 3.0 6.0 0.00 0.00 0.00 62 1012.5
20210617081341 70 126 4.0 7.0 0.00 0.00 0.00 62 1012.5
20210617081227 70 129 3.0 6.0 0.00 0.00 0.00 62 1012.3
20210617081130 70 118 3.0 6.0 0.00 0.00 0.00 62 1012.4
20210617081031 70 126 4.0 6.0 0.00 0.00 0.00 62 1012.4
20210617080934 70 107 4.0 7.0 0.00 0.00 0.00 62 1012.2
20210617080835 70 116 3.0 7.0 0.00 0.00 0.00 62 1012.2
20210617080736 70 103 3.0 7.0 0.00 0.00 0.00 62 1012.2
20210617080622 70 101 3.0 6.0 0.00 0.00 0.00 62 1012.3
20210617080524 70 110 3.0 6.0 0.00 0.00 0.00 62 1012.3
20210617080426 70 150 3.0 6.0 0.00 0.00 0.00 62 1012.2
20210617080328 70 142 3.0 6.0 0.00 0.00 0.00 62 1012.2
20210617080230 70 121 3.0 6.0 0.00 0.00 0.00 61 1012.2
20210617080132 71 123 3.0 8.0 0.00 0.00 0.00 61 1012.2
20210617080038 71 124 3.0 8.0 0.00 0.00 0.00 61 1012.2
20210617075940 71 114 3.0 8.0 0.00 0.00 0.00 61 1012.3
20210617075823 71 144 3.0 8.0 0.00 0.00 0.00 61 1012.3
20210617075724 71 126 4.0 8.0 0.00 0.00 0.00 61 1012.3
20210617075626 71 136 3.0 8.0 0.00 0.00 0.00 61 1012.4
20210617075527 71 115 3.0 8.0 0.00 0.00 0.00 61 1012.4
20210617075433 71 126 3.0 8.0 0.00 0.00 0.00 61 1012.4
20210617075335 71 124 3.0 8.0 0.00 0.00 0.00 61 1012.4
20210617075237 71 131 3.0 8.0 0.00 0.00 0.00 61 1012.5
20210617075139 71 128 3.0 6.0 0.00 0.00 0.00 61 1012.4
20210617075042 71 136 3.0 6.0 0.00 0.00 0.00 61 1012.4
20210617074924 71 111 3.0 8.0 0.00 0.00 0.00 61 1012.4
20210617074830 71 117 4.0 8.0 0.00 0.00 0.00 61 1012.4
20210617074732 71 119 4.0 8.0 0.00 0.00 0.00 61 1012.4
20210617074635 71 112 4.0 8.0 0.00 0.00 0.00 61 1012.4
20210617074537 71 143 4.0 8.0 0.00 0.00 0.00 61 1012.5
20210617074439 71 128 4.0 8.0 0.00 0.00 0.00 61 1012.4
20210617074341 71 111 4.0 8.0 0.00 0.00 0.00 61 1012.5
20210617074227 71 126 4.0 8.0 0.00 0.00 0.00 60 1012.4
20210617074127 71 150 3.0 8.0 0.00 0.00 0.00 61 1012.4
20210617074029 71 117 3.0 8.0 0.00 0.00 0.00 60 1012.4
20210617073931 71 148 3.0 8.0 0.00 0.00 0.00 60 1012.5
20210617073832 71 88 3.0 8.0 0.00 0.00 0.00 60 1012.5
20210617073734 71 134 3.0 8.0 0.00 0.00 0.00 60 1012.5
20210617073635 71 124 3.0 8.0 0.00 0.00 0.00 60 1012.6
20210617073540 71 118 3.0 8.0 0.00 0.00 0.00 60 1012.6
20210617073423 71 150 3.0 8.0 0.00 0.00 0.00 60 1012.7
20210617073325 71 113 2.0 8.0 0.00 0.00 0.00 60 1012.7
20210617073226 71 104 2.0 8.0 0.00 0.00 0.00 60 1012.6
20210617073128 71 107 2.0 8.0 0.00 0.00 0.00 60 1012.6
20210617073028 71 94 3.0 8.0 0.00 0.00 0.00 60 1012.6
20210617072933 71 128 3.0 8.0 0.00 0.00 0.00 60 1012.6
20210617072836 71 130 3.0 7.0 0.00 0.00 0.00 60 1012.6
20210617072739 71 123 2.0 7.0 0.00 0.00 0.00 60 1012.5
20210617072639 71 161 3.0 7.0 0.00 0.00 0.00 60 1012.5
20210617072541 71 114 3.0 7.0 0.00 0.00 0.00 60 1012.5
20210617072443 71 92 2.0 7.0 0.00 0.00 0.00 60 1012.5
20210617072327 71 117 3.0 7.0 0.00 0.00 0.00 60 1012.6
20210617072228 71 124 2.0 7.0 0.00 0.00 0.00 60 1012.5
20210617072130 71 129 3.0 7.0 0.00 0.00 0.00 60 1012.5
20210617072032 71 125 4.0 7.0 0.00 0.00 0.00 60 1012.5
20210617071934 71 130 4.0 7.0 0.00 0.00 0.00 60 1012.5
20210617071837 71 91 3.0 6.0 0.00 0.00 0.00 60 1012.5
20210617071742 71 146 3.0 5.0 0.00 0.00 0.00 60 1012.5
20210617071624 71 123 3.0 6.0 0.00 0.00 0.00 60 1012.5
20210617071526 71 94 3.0 6.0 0.00 0.00 0.00 60 1012.5
20210617071428 71 90 2.0 6.0 0.00 0.00 0.00 60 1012.5
20210617071330 71 134 2.0 6.0 0.00 0.00 0.00 60 1012.5
20210617071231 71 146 3.0 6.0 0.00 0.00 0.00 60 1012.5
20210617071137 71 133 3.0 6.0 0.00 0.00 0.00 60 1012.5
20210617071039 71 126 3.0 6.0 0.00 0.00 0.00 60 1012.5
20210617070941 71 130 2.0 6.0 0.00 0.00 0.00 60 1012.5
20210617070823 71 128 3.0 6.0 0.00 0.00 0.00 60 1012.6
20210617070724 71 121 3.0 6.0 0.00 0.00 0.00 60 1012.6
20210617070625 71 85 3.0 6.0 0.00 0.00 0.00 60 1012.7
20210617070531 71 122 2.0 6.0 0.00 0.00 0.00 60 1012.7
20210617070432 71 121 2.0 6.0 0.00 0.00 0.00 60 1012.7
20210617070333 71 123 2.0 6.0 0.00 0.00 0.00 60 1012.7
20210617070234 71 153 3.0 6.0 0.00 0.00 0.00 60 1012.6
20210617070136 71 135 3.0 6.0 0.00 0.00 0.00 59 1012.6
20210617070038 71 133 3.0 6.0 0.00 0.00 0.00 59 1012.5
20210617065938 71 130 2.0 5.0 0.00 0.00 0.00 60 1012.6
20210617065824 71 145 2.0 9.0 0.00 0.00 0.00 59 1012.5
20210617065726 71 138 2.0 9.0 0.00 0.00 0.00 59 1012.5
20210617065627 72 138 3.0 9.0 0.00 0.00 0.00 59 1012.5
20210617065529 71 133 3.0 9.0 0.00 0.00 0.00 59 1012.5
20210617065431 72 156 3.0 9.0 0.00 0.00 0.00 59 1012.5
20210617065333 72 157 3.0 9.0 0.00 0.00 0.00 59 1012.5
20210617065239 72 134 3.0 9.0 0.00 0.00 0.00 59 1012.5
20210617065140 72 119 3.0 9.0 0.00 0.00 0.00 59 1012.5
20210617065043 72 138 4.0 9.0 0.00 0.00 0.00 59 1012.5
20210617064925 72 110 3.0 9.0 0.00 0.00 0.00 59 1012.6
20210617064825 72 132 4.0 9.0 0.00 0.00 0.00 59 1012.6
20210617064728 72 136 4.0 9.0 0.00 0.00 0.00 59 1012.6
20210617064633 72 118 4.0 9.0 0.00 0.00 0.00 59 1012.7
20210617064534 72 105 4.0 9.0 0.00 0.00 0.00 59 1012.6
20210617064437 72 133 5.0 9.0 0.00 0.00 0.00 59 1012.7
20210617064339 72 143 5.0 9.0 0.00 0.00 0.00 59 1012.6
20210617064240 72 114 4.0 9.0 0.00 0.00 0.00 59 1012.6
20210617064142 72 140 4.0 9.0 0.00 0.00 0.00 59 1012.6
20210617064028 72 113 3.0 7.0 0.00 0.00 0.00 59 1012.6
20210617063930 72 146 3.0 8.0 0.00 0.00 0.00 59 1012.7
20210617063831 72 146 4.0 8.0 0.00 0.00 0.00 59 1012.7
20210617063734 72 133 4.0 8.0 0.00 0.00 0.00 59 1012.7
20210617063636 72 106 4.0 8.0 0.00 0.00 0.00 59 1012.8
20210617063538 72 111 3.0 7.0 0.00 0.00 0.00 59 1012.8
20210617063425 72 159 4.0 7.0 0.00 0.00 0.00 59 1012.8
20210617063325 72 132 4.0 7.0 0.00 0.00 0.00 59 1012.8
20210617063227 72 128 3.0 7.0 0.00 0.00 0.00 59 1013.0
20210617063129 72 146 3.0 7.0 0.00 0.00 0.00 59 1013.0
20210617063032 72 140 3.0 7.0 0.00 0.00 0.00 59 1013.0
20210617062934 72 137 3.0 7.0 0.00 0.00 0.00 59 1013.0
20210617062839 72 153 3.0 7.0 0.00 0.00 0.00 59 1013.0
20210617062742 72 151 3.0 7.0 0.00 0.00 0.00 58 1013.1
20210617062624 72 138 2.0 7.0 0.00 0.00 0.00 59 1013.1
20210617062525 72 145 2.0 7.0 0.00 0.00 0.00 58 1013.1
20210617062427 72 126 2.0 7.0 0.00 0.00 0.00 58 1013.1
20210617062328 72 129 2.0 7.0 0.00 0.00 0.00 58 1013.1
20210617062234 72 111 2.0 7.0 0.00 0.00 0.00 58 1013.1
20210617062134 72 151 3.0 7.0 0.00 0.00 0.00 58 1013.1
20210617062037 72 150 3.0 7.0 0.00 0.00 0.00 58 1013.1
20210617061939 72 133 4.0 7.0 0.00 0.00 0.00 58 1013.0
20210617061840 72 143 3.0 7.0 0.00 0.00 0.00 58 1013.0
20210617061741 72 125 3.0 7.0 0.00 0.00 0.00 58 1013.0
20210617061627 72 137 4.0 7.0 0.00 0.00 0.00 58 1013.0
20210617061529 72 142 4.0 8.0 0.00 0.00 0.00 58 1013.0
20210617061431 72 147 3.0 8.0 0.00 0.00 0.00 58 1013.0
20210617061334 72 144 3.0 8.0 0.00 0.00 0.00 58 1013.0
20210617061237 72 120 3.0 8.0 0.00 0.00 0.00 58 1013.0
20210617061138 72 115 3.0 8.0 0.00 0.00 0.00 58 1013.0
20210617061038 72 135 3.0 8.0 0.00 0.00 0.00 58 1013.1
20210617060925 72 136 4.0 8.0 0.00 0.00 0.00 58 1013.1
20210617060827 72 135 4.0 8.0 0.00 0.00 0.00 58 1013.1
20210617060729 72 142 3.0 8.0 0.00 0.00 0.00 58 1013.1
20210617060630 72 119 3.0 8.0 0.00 0.00 0.00 58 1013.0
20210617060532 72 155 3.0 8.0 0.00 0.00 0.00 58 1013.1
20210617060434 72 135 3.0 8.0 0.00 0.00 0.00 58 1013.0
20210617060340 72 119 3.0 8.0 0.00 0.00 0.00 58 1013.1
20210617060241 72 129 3.0 8.0 0.00 0.00 0.00 58 1013.1
20210617060123 72 135 4.0 8.0 0.00 0.00 0.00 58 1013.1
20210617060024 72 121 4.0 8.0 0.00 0.00 0.00 58 1013.1
20210617055926 72 137 3.0 8.0 0.00 0.00 0.00 58 1013.2
20210617055827 72 118 4.0 8.0 0.00 0.00 0.00 58 1013.2
20210617055732 72 139 5.0 11.0 0.00 0.00 0.00 58 1013.2
20210617055635 72 139 4.0 11.0 0.00 0.00 0.00 58 1013.2
20210617055536 72 137 5.0 11.0 0.00 0.00 0.00 58 1013.2
20210617055438 72 111 5.0 11.0 0.00 0.00 0.00 58 1013.2
20210617055341 72 140 5.0 11.0 0.00 0.00 0.00 58 1013.2
20210617055223 72 128 5.0 11.0 0.00 0.00 0.00 58 1013.2
20210617055130 72 144 5.0 11.0 0.00 0.00 0.00 58 1013.1
20210617055030 72 119 5.0 11.0 0.00 0.00 0.00 58 1013.2
20210617054933 72 124 5.0 11.0 0.00 0.00 0.00 58 1013.2
20210617054834 72 137 4.0 11.0 0.00 0.00 0.00 58 1013.2
20210617054738 72 144 4.0 7.0 0.00 0.00 0.00 58 1013.3
20210617054640 72 146 3.0 9.0 0.00 0.00 0.00 58 1013.4
20210617054526 72 133 4.0 9.0 0.00 0.00 0.00 58 1013.4
20210617054427 72 166 4.0 9.0 0.00 0.00 0.00 58 1013.5
20210617054329 72 119 4.0 9.0 0.00 0.00 0.00 58 1013.4
20210617054230 72 130 3.0 9.0 0.00 0.00 0.00 58 1013.4
20210617054132 72 117 4.0 9.0 0.00 0.00 0.00 58 1013.4
20210617054033 72 140 4.0 9.0 0.00 0.00 0.00 58 1013.4
20210617053938 72 120 4.0 9.0 0.00 0.00 0.00 58 1013.4
20210617053839 72 109 4.0 9.0 0.00 0.00 0.00 58 1013.5
20210617053740 72 134 3.0 9.0 0.00 0.00 0.00 58 1013.4
20210617053641 72 116 3.0 9.0 0.00 0.00 0.00 58 1013.5
20210617053523 72 146 4.0 9.0 0.00 0.00 0.00 58 1013.4
20210617053425 72 130 4.0 9.0 0.00 0.00 0.00 58 1013.4
20210617053331 72 142 4.0 7.0 0.00 0.00 0.00 58 1013.4
20210617053232 72 141 3.0 8.0 0.00 0.00 0.00 58 1013.4
20210617053133 72 67 3.0 8.0 0.00 0.00 0.00 58 1013.3
20210617053034 72 126 4.0 8.0 0.00 0.00 0.00 58 1013.3
20210617052935 72 95 4.0 8.0 0.00 0.00 0.00 58 1013.3
20210617052838 72 117 3.0 8.0 0.00 0.00 0.00 58 1013.3
20210617052725 72 108 3.0 8.0 0.00 0.00 0.00 58 1013.3
20210617052627 72 98 3.0 8.0 0.00 0.00 0.00 58 1013.3
20210617052529 72 143 4.0 8.0 0.00 0.00 0.00 58 1013.3
20210617052431 72 126 4.0 8.0 0.00 0.00 0.00 58 1013.3
20210617052332 72 147 4.0 8.0 0.00 0.00 0.00 58 1013.4
20210617052235 72 105 3.0 8.0 0.00 0.00 0.00 58 1013.4
20210617052137 72 123 4.0 8.0 0.00 0.00 0.00 58 1013.5
20210617052042 72 121 3.0 8.0 0.00 0.00 0.00 58 1013.5
20210617051924 73 121 2.0 8.0 0.00 0.00 0.00 58 1013.5
20210617051826 73 117 2.0 8.0 0.00 0.00 0.00 58 1013.5
20210617051728 73 92 3.0 8.0 0.00 0.00 0.00 58 1013.4
20210617051630 73 111 4.0 8.0 0.00 0.00 0.00 58 1013.4
20210617051534 73 145 3.0 5.0 0.00 0.00 0.00 58 1013.4
20210617051439 73 138 3.0 6.0 0.00 0.00 0.00 58 1013.4
20210617051339 73 115 2.0 6.0 0.00 0.00 0.00 58 1013.5
20210617051241 73 142 3.0 6.0 0.00 0.00 0.00 57 1013.4
20210617051123 73 127 3.0 8.0 0.00 0.00 0.00 57 1013.5
20210617051025 73 105 3.0 8.0 0.00 0.00 0.00 57 1013.5
20210617050927 73 123 3.0 8.0 0.00 0.00 0.00 57 1013.5
20210617050833 73 126 3.0 8.0 0.00 0.00 0.00 57 1013.6
20210617050736 73 103 3.0 8.0 0.00 0.00 0.00 57 1013.6
20210617050637 73 113 3.0 8.0 0.00 0.00 0.00 57 1013.7
20210617050541 73 104 4.0 8.0 0.00 0.00 0.00 57 1013.7
20210617050443 73 114 4.0 8.0 0.00 0.00 0.00 57 1013.7
20210617050405 73 138 3.0 8.0 0.00 0.00 0.00 57 1013.7
20210617050141 73 136 3.0 5.0 0.00 0.00 0.00 57 1013.8
20210617050042 73 115 3.0 5.0 0.00 0.00 0.00 57 1013.7
20210617045939 73 132 3.0 5.0 0.00 0.00 0.00 57 1013.8
20210617045840 73 152 3.0 5.0 0.00 0.00 0.00 57 1013.7
20210617045724 73 111 3.0 5.0 0.00 0.00 0.00 57 1013.7
20210617045624 73 111 2.0 5.0 0.00 0.00 0.00 57 1013.8
20210617045530 73 109 2.0 5.0 0.00 0.00 0.00 57 1013.9
20210617045432 73 130 2.0 5.0 0.00 0.00 0.00 57 1013.8
20210617045333 73 79 2.0 5.0 0.00 0.00 0.00 57 1013.8
20210617045235 73 115 3.0 5.0 0.00 0.00 0.00 57 1013.8
20210617045135 73 125 3.0 5.0 0.00 0.00 0.00 57 1013.8
20210617045037 73 142 3.0 8.0 0.00 0.00 0.00 57 1013.8
20210617044938 73 123 3.0 8.0 0.00 0.00 0.00 57 1013.8
20210617044823 73 137 3.0 8.0 0.00 0.00 0.00 57 1013.8
20210617044727 73 119 3.0 8.0 0.00 0.00 0.00 57 1013.8
20210617044628 73 115 3.0 8.0 0.00 0.00 0.00 57 1013.8
20210617044529 73 134 3.0 8.0 0.00 0.00 0.00 57 1013.8
20210617044430 73 136 3.0 8.0 0.00 0.00 0.00 57 1013.8
20210617044331 73 145 3.0 8.0 0.00 0.00 0.00 57 1013.7
20210617044237 73 137 3.0 8.0 0.00 0.00 0.00 57 1013.7
20210617044139 73 119 3.0 8.0 0.00 0.00 0.00 57 1013.7
20210617044053 73 144 3.0 8.0 0.00 0.00 0.00 57 1013.7
20210617043842 73 140 4.0 8.0 0.00 0.00 0.00 57 1013.4
20210617043727 73 130 5.0 8.0 0.00 0.00 0.00 57 1013.4
20210617043628 73 130 5.0 9.0 0.00 0.00 0.00 57 1013.4
20210617043529 73 116 4.0 9.0 0.00 0.00 0.00 57 1013.4
20210617043431 73 119 4.0 9.0 0.00 0.00 0.00 57 1013.4
20210617043333 73 139 5.0 9.0 0.00 0.00 0.00 57 1013.4
20210617043235 73 78 4.0 9.0 0.00 0.00 0.00 57 1013.4
20210617043135 73 140 4.0 9.0 0.00 0.00 0.00 57 1013.3
20210617043039 73 134 5.0 9.0 0.00 0.00 0.00 57 1013.3
20210617042940 73 151 4.0 9.0 0.00 0.00 0.00 57 1013.3
20210617042841 73 148 4.0 9.0 0.00 0.00 0.00 58 1013.3
20210617042742 73 147 4.0 9.0 0.00 0.00 0.00 58 1013.3
20210617042623 73 138 4.0 9.0 0.00 0.00 0.00 57 1013.3
20210617042526 73 142 5.0 9.0 0.00 0.00 0.00 57 1013.3
20210617042430 73 144 4.0 9.0 0.00 0.00 0.00 57 1013.3
20210617042332 73 108 4.0 8.0 0.00 0.00 0.00 57 1013.3
20210617042235 73 120 5.0 8.0 0.00 0.00 0.00 57 1013.4
20210617042137 73 142 5.0 8.0 0.00 0.00 0.00 57 1013.4
20210617042039 73 161 5.0 9.0 0.00 0.00 0.00 57 1013.4
20210617041940 73 133 4.0 8.0 0.00 0.00 0.00 57 1013.4
20210617041824 73 142 4.0 7.0 0.00 0.00 0.00 57 1013.4
20210617041728 73 120 4.0 7.0 0.00 0.00 0.00 57 1013.5
20210617041631 73 128 4.0 8.0 0.00 0.00 0.00 57 1013.5
20210617041532 73 140 4.0 8.0 0.00 0.00 0.00 57 1013.6
20210617041434 73 105 3.0 8.0 0.00 0.00 0.00 57 1013.6
20210617041336 73 148 4.0 8.0 0.00 0.00 0.00 57 1013.7
20210617041240 73 113 4.0 8.0 0.00 0.00 0.00 57 1013.7
20210617041123 73 102 4.0 8.0 0.00 0.00 0.00 57 1013.7
20210617041026 73 148 4.0 8.0 0.00 0.00 0.00 57 1013.7
20210617040927 73 135 4.0 8.0 0.00 0.00 0.00 57 1013.7
20210617040829 73 118 4.0 8.0 0.00 0.00 0.00 57 1013.8
20210617040732 73 126 3.0 9.0 0.00 0.00 0.00 57 1013.8
20210617040637 73 126 4.0 9.0 0.00 0.00 0.00 57 1013.8
20210617040540 73 132 5.0 9.0 0.00 0.00 0.00 57 1013.9
20210617040441 73 96 4.0 9.0 0.00 0.00 0.00 56 1013.9
20210617040332 73 134 5.0 9.0 0.00 0.00 0.00 56 1013.9
20210617040234 73 105 4.0 9.0 0.00 0.00 0.00 56 1014.0
20210617040135 73 136 4.0 8.0 0.00 0.00 0.00 56 1014.0
20210617040035 73 126 3.0 8.0 0.00 0.00 0.00 56 1014.0
20210617035942 73 124 3.0 8.0 0.00 0.00 0.00 56 1014.1
20210617035824 73 147 3.0 8.0 0.00 0.00 0.00 56 1014.1
20210617035723 73 129 3.0 8.0 0.00 0.00 0.00 56 1014.1
20210617035625 73 150 4.0 8.0 0.00 0.00 0.00 56 1014.1
20210617035526 73 146 4.0 8.0 0.00 0.00 0.00 56 1014.0
20210617035428 73 82 3.0 8.0 0.00 0.00 0.00 56 1014.0
20210617035331 73 113 4.0 8.0 0.00 0.00 0.00 56 1013.9
20210617035231 73 132 4.0 8.0 0.00 0.00 0.00 56 1014.0
20210617035132 74 101 4.0 8.0 0.00 0.00 0.00 56 1013.9
20210617035035 74 123 2.0 8.0 0.00 0.00 0.00 57 1013.9
20210617034937 74 115 3.0 8.0 0.00 0.00 0.00 56 1013.9
20210617034838 74 140 3.0 8.0 0.00 0.00 0.00 56 1013.9
20210617034723 74 115 3.0 8.0 0.00 0.00 0.00 56 1014.0
20210617034626 74 115 3.0 8.0 0.00 0.00 0.00 56 1014.0
20210617034527 74 97 3.0 8.0 0.00 0.00 0.00 56 1014.0
20210617034428 74 141 3.0 8.0 0.00 0.00 0.00 56 1014.0
20210617034329 74 123 3.0 8.0 0.00 0.00 0.00 56 1014.0
20210617034230 74 124 3.0 8.0 0.00 0.00 0.00 56 1014.0
20210617034137 74 157 4.0 8.0 0.00 0.00 0.00 56 1014.2
20210617034039 74 135 4.0 8.0 0.00 0.00 0.00 56 1014.2
20210617033940 74 160 5.0 8.0 0.00 0.00 0.00 56 1014.2
20210617033841 74 139 5.0 8.0 0.00 0.00 0.00 56 1014.2
20210617033724 74 113 4.0 8.0 0.00 0.00 0.00 56 1014.2
20210617033624 74 140 4.0 8.0 0.00 0.00 0.00 56 1014.2
20210617033529 74 153 4.0 8.0 0.00 0.00 0.00 56 1014.2
20210617033432 74 149 4.0 7.0 0.00 0.00 0.00 55 1014.3
20210617033333 74 138 4.0 8.0 0.00 0.00 0.00 55 1014.3
20210617033235 74 98 4.0 8.0 0.00 0.00 0.00 55 1014.3
20210617033136 74 123 4.0 8.0 0.00 0.00 0.00 55 1014.2
20210617033038 74 164 4.0 8.0 0.00 0.00 0.00 55 1014.3
20210617032926 74 140 3.0 8.0 0.00 0.00 0.00 55 1014.4
20210617032829 74 136 2.0 8.0 0.00 0.00 0.00 55 1014.4
20210617032728 74 140 2.0 8.0 0.00 0.00 0.00 55 1014.4
20210617032628 74 161 3.0 8.0 0.00 0.00 0.00 55 1014.4
20210617032530 74 149 3.0 8.0 0.00 0.00 0.00 55 1014.4
20210617032434 74 128 2.0 7.0 0.00 0.00 0.00 55 1014.3
20210617032338 74 140 3.0 7.0 0.00 0.00 0.00 55 1014.3
20210617032223 74 166 3.0 7.0 0.00 0.00 0.00 55 1014.2
20210617032125 74 117 3.0 7.0 0.00 0.00 0.00 56 1014.2
20210617032026 74 115 3.0 7.0 0.00 0.00 0.00 55 1014.2
20210617031930 74 105 3.0 7.0 0.00 0.00 0.00 55 1014.3
20210617031831 74 111 3.0 7.0 0.00 0.00 0.00 55 1014.2
20210617031734 74 126 4.0 7.0 0.00 0.00 0.00 55 1014.2
20210617031640 75 122 4.0 7.0 0.00 0.00 0.00 55 1014.3
20210617031542 75 130 4.0 8.0 0.00 0.00 0.00 55 1014.3
20210617031424 75 154 4.0 8.0 0.00 0.00 0.00 55 1014.3
20210617031325 75 124 4.0 8.0 0.00 0.00 0.00 55 1014.4
20210617031227 75 122 4.0 8.0 0.00 0.00 0.00 55 1014.5
20210617031128 75 132 4.0 7.0 0.00 0.00 0.00 55 1014.5
20210617031035 75 132 3.0 6.0 0.00 0.00 0.00 55 1014.6
20210617030938 75 134 3.0 6.0 0.00 0.00 0.00 55 1014.6
20210617030841 75 137 3.0 6.0 0.00 0.00 0.00 54 1014.6
20210617030723 75 132 3.0 6.0 0.00 0.00 0.00 54 1014.6
20210617030623 75 138 3.0 6.0 0.00 0.00 0.00 54 1014.6
20210617030525 75 170 2.0 5.0 0.00 0.00 0.00 54 1014.6
20210617030429 75 144 1.0 5.0 0.00 0.00 0.00 54 1014.6
20210617030330 75 139 2.0 5.0 0.00 0.00 0.00 54 1014.6
20210617030232 75 109 2.0 6.0 0.00 0.00 0.00 54 1014.5
20210617030133 75 131 2.0 6.0 0.00 0.00 0.00 54 1014.5
20210617030034 75 130 2.0 6.0 0.00 0.00 0.00 54 1014.4
20210617025933 75 134 2.0 6.0 0.00 0.00 0.00 54 1014.3
20210617025838 75 131 2.0 7.0 0.00 0.00 0.00 54 1014.3
20210617025740 75 130 3.0 7.0 0.00 0.00 0.00 54 1014.3
20210617025642 75 123 2.0 7.0 0.00 0.00 0.00 54 1014.3
20210617025523 75 106 3.0 7.0 0.00 0.00 0.00 53 1014.3
20210617025424 75 139 4.0 7.0 0.00 0.00 0.00 53 1014.3
20210617025327 75 122 3.0 7.0 0.00 0.00 0.00 53 1014.3
20210617025233 75 130 3.0 7.0 0.00 0.00 0.00 53 1014.3
20210617025130 75 133 3.0 7.0 0.00 0.00 0.00 53 1014.4
20210617025031 76 146 4.0 7.0 0.00 0.00 0.00 53 1014.4
20210617024933 76 136 4.0 7.0 0.00 0.00 0.00 53 1014.4
20210617024835 76 143 4.0 7.0 0.00 0.00 0.00 53 1014.4
20210617024735 76 132 3.0 5.0 0.00 0.00 0.00 53 1014.4
20210617024637 76 129 3.0 5.0 0.00 0.00 0.00 53 1014.5
20210617024542 76 131 2.0 4.0 0.00 0.00 0.00 53 1014.5
20210617024423 76 126 2.0 4.0 0.00 0.00 0.00 53 1014.5
20210617024325 76 136 2.0 4.0 0.00 0.00 0.00 53 1014.5
20210617024228 76 131 2.0 5.0 0.00 0.00 0.00 53 1014.6
20210617024130 76 132 2.0 5.0 0.00 0.00 0.00 53 1014.6
20210617024031 76 136 3.0 5.0 0.00 0.00 0.00 53 1014.6
20210617023936 76 136 2.0 5.0 0.00 0.00 0.00 53 1014.6
20210617023839 76 138 2.0 5.0 0.00 0.00 0.00 53 1014.6
20210617023740 76 138 2.0 5.0 0.00 0.00 0.00 52 1014.6
20210617023641 76 135 3.0 5.0 0.00 0.00 0.00 52 1014.5
20210617023524 76 159 3.0 6.0 0.00 0.00 0.00 52 1014.5
20210617023425 76 130 2.0 6.0 0.00 0.00 0.00 52 1014.5
20210617023331 76 126 2.0 6.0 0.00 0.00 0.00 52 1014.5
20210617023233 76 140 2.0 6.0 0.00 0.00 0.00 52 1014.5
20210617023135 76 138 2.0 6.0 0.00 0.00 0.00 52 1014.5
20210617023036 76 128 2.0 6.0 0.00 0.00 0.00 52 1014.6
20210617022939 76 126 3.0 6.0 0.00 0.00 0.00 52 1014.6
20210617022841 76 137 3.0 6.0 0.00 0.00 0.00 52 1014.5
20210617022726 76 130 3.0 6.0 0.00 0.00 0.00 52 1014.6
20210617022629 76 144 3.0 6.0 0.00 0.00 0.00 52 1014.6
20210617022529 76 100 3.0 6.0 0.00 0.00 0.00 52 1014.5
20210617022431 77 128 3.0 7.0 0.00 0.00 0.00 52 1014.5
20210617022333 77 134 3.0 7.0 0.00 0.00 0.00 52 1014.5
20210617022235 77 139 3.0 7.0 0.00 0.00 0.00 52 1014.5
20210617022140 77 144 3.0 7.0 0.00 0.00 0.00 51 1014.5
20210617022042 77 137 3.0 7.0 0.00 0.00 0.00 51 1014.4
20210617021923 77 112 3.0 7.0 0.00 0.00 0.00 51 1014.4
20210617021825 77 144 3.0 7.0 0.00 0.00 0.00 51 1014.4
20210617021727 77 132 4.0 7.0 0.00 0.00 0.00 51 1014.4
20210617021628 77 130 4.0 7.0 0.00 0.00 0.00 51 1014.3
20210617021535 77 125 4.0 6.0 0.00 0.00 0.00 51 1014.3
20210617021437 77 153 4.0 7.0 0.00 0.00 0.00 51 1014.3
20210617021338 77 144 4.0 7.0 0.00 0.00 0.00 51 1014.3
20210617021240 77 150 3.0 6.0 0.00 0.00 0.00 51 1014.3
20210617021123 77 130 3.0 6.0 0.00 0.00 0.00 51 1014.4
20210617021026 77 113 3.0 6.0 0.00 0.00 0.00 51 1014.4
20210617020932 77 136 3.0 6.0 0.00 0.00 0.00 50 1014.4
20210617020834 77 137 4.0 6.0 0.00 0.00 0.00 50 1014.5
20210617020736 77 134 3.0 6.0 0.00 0.00 0.00 50 1014.4
20210617020637 78 124 3.0 6.0 0.00 0.00 0.00 50 1014.5
20210617020538 78 141 3.0 6.0 0.00 0.00 0.00 50 1014.5
20210617020440 78 129 2.0 6.0 0.00 0.00 0.00 50 1014.5
20210617020326 78 123 3.0 6.0 0.00 0.00 0.00 50 1014.5
20210617020228 78 134 3.0 6.0 0.00 0.00 0.00 50 1014.5
20210617020131 78 130 3.0 6.0 0.00 0.00 0.00 50 1014.5
20210617020032 78 147 2.0 6.0 0.00 0.00 0.00 49 1014.5
20210617015933 78 124 3.0 6.0 0.00 0.00 0.00 49 1014.5
20210617015834 78 130 4.0 6.0 0.00 0.00 0.00 49 1014.5
20210617015736 78 153 3.0 6.0 0.00 0.00 0.00 49 1014.5
20210617015642 78 121 3.0 7.0 0.00 0.00 0.00 49 1014.5
20210617015522 78 123 3.0 7.0 0.00 0.00 0.00 49 1014.4
20210617015424 78 141 3.0 7.0 0.00 0.00 0.00 49 1014.4
20210617015327 78 150 3.0 7.0 0.00 0.00 0.00 49 1014.4
20210617015230 79 140 3.0 7.0 0.00 0.00 0.00 49 1014.3
20210617015130 79 134 3.0 7.0 0.00 0.00 0.00 48 1014.3
20210617015036 79 127 4.0 7.0 0.00 0.00 0.00 48 1014.3
20210617014937 79 126 3.0 7.0 0.00 0.00 0.00 48 1014.3
20210617014840 79 123 3.0 7.0 0.00 0.00 0.00 48 1014.3
20210617014742 79 134 4.0 7.0 0.00 0.00 0.00 48 1014.2
20210617014623 79 121 4.0 7.0 0.00 0.00 0.00 48 1014.3
20210617014525 79 144 4.0 7.0 0.00 0.00 0.00 48 1014.3
20210617014431 79 159 4.0 7.0 0.00 0.00 0.00 47 1014.3
20210617014334 79 124 3.0 7.0 0.00 0.00 0.00 48 1014.3
20210617014236 80 123 3.0 7.0 0.00 0.00 0.00 47 1014.3
20210617014138 80 124 3.0 6.0 0.00 0.00 0.00 47 1014.3
20210617014040 80 161 4.0 6.0 0.00 0.00 0.00 47 1014.4
20210617013922 80 136 4.0 6.0 0.00 0.00 0.00 47 1014.4
20210617013828 80 98 3.0 7.0 0.00 0.00 0.00 47 1014.5
20210617013730 80 142 3.0 5.0 0.00 0.00 0.00 47 1014.6
20210617013632 80 140 3.0 5.0 0.00 0.00 0.00 46 1014.6
20210617013533 80 128 3.0 5.0 0.00 0.00 0.00 47 1014.6
20210617013435 81 133 3.0 5.0 0.00 0.00 0.00 46 1014.6
20210617013336 81 136 3.0 5.0 0.00 0.00 0.00 46 1014.6
20210617013224 81 130 3.0 6.0 0.00 0.00 0.00 46 1014.6
20210617013126 81 128 3.0 5.0 0.00 0.00 0.00 46 1014.6
20210617013026 81 171 2.0 4.0 0.00 0.00 0.00 46 1014.6
20210617012929 81 136 2.0 4.0 0.00 0.00 0.00 46 1014.6
20210617012829 81 136 2.0 4.0 0.00 0.00 0.00 46 1014.6
20210617012730 81 121 2.0 4.0 0.00 0.00 0.00 45 1014.6
20210617012635 81 135 2.0 5.0 0.00 0.00 0.00 45 1014.6
20210617012537 81 133 2.0 5.0 0.00 0.00 0.00 45 1014.5
20210617012437 82 138 3.0 5.0 0.00 0.00 0.00 45 1014.6
20210617012339 82 131 3.0 5.0 0.00 0.00 0.00 45 1014.6
20210617012240 82 136 3.0 5.0 0.00 0.00 0.00 45 1014.6
20210617012123 82 124 3.0 5.0 0.00 0.00 0.00 45 1014.6
20210617012029 82 152 3.0 5.0 0.00 0.00 0.00 44 1014.6
20210617011931 82 123 3.0 5.0 0.00 0.00 0.00 44 1014.6
20210617011833 82 138 3.0 5.0 0.00 0.00 0.00 44 1014.6
20210617011734 82 134 3.0 5.0 0.00 0.00 0.00 44 1014.7
20210617011637 82 136 3.0 5.0 0.00 0.00 0.00 44 1014.6
20210617011539 83 132 3.0 5.0 0.00 0.00 0.00 44 1014.6
20210617011425 83 134 3.0 5.0 0.00 0.00 0.00 44 1014.6
20210617011326 83 132 3.0 5.0 0.00 0.00 0.00 44 1014.5
20210617011228 83 112 3.0 5.0 0.00 0.00 0.00 44 1014.6
20210617011130 83 136 3.0 5.0 0.00 0.00 0.00 43 1014.6
20210617011031 83 99 3.0 5.0 0.00 0.00 0.00 43 1014.6
20210617010933 83 117 3.0 5.0 0.00 0.00 0.00 43 1014.6
20210617010836 83 135 3.0 5.0 0.00 0.00 0.00 43 1014.6
20210617010722 84 126 2.0 7.0 0.00 0.00 0.00 42 1014.6
20210617010625 84 134 3.0 7.0 0.00 0.00 0.00 42 1014.6
20210617010526 84 140 3.0 7.0 0.00 0.00 0.00 42 1014.7
20210617010427 84 100 3.0 7.0 0.00 0.00 0.00 42 1014.7
20210617010329 84 131 3.0 7.0 0.00 0.00 0.00 42 1014.7
20210617010232 84 117 3.0 7.0 0.00 0.00 0.00 42 1014.7
20210617010137 84 144 3.0 7.0 0.00 0.00 0.00 42 1014.7
20210617010039 84 146 3.0 7.0 0.00 0.00 0.00 41 1014.7
20210617005937 84 110 3.0 7.0 0.00 0.00 0.00 41 1014.7
20210617005838 85 140 3.0 7.0 0.00 0.00 0.00 41 1014.8
20210617005740 85 139 3.0 7.0 0.00 0.00 0.00 41 1014.8
20210617005641 85 132 3.0 7.0 0.00 0.00 0.00 41 1014.8
20210617005527 85 128 3.0 7.0 0.00 0.00 0.00 41 1014.7
20210617005430 85 142 4.0 7.0 0.00 0.00 0.00 40 1014.7
20210617005331 85 159 4.0 7.0 0.00 0.00 0.00 40 1014.7
20210617005231 85 126 4.0 7.0 0.00 0.00 0.00 40 1014.8
20210617005133 85 134 3.0 7.0 0.00 0.00 0.00 40 1014.7
20210617005033 86 144 3.0 7.0 0.00 0.00 0.00 40 1014.7
20210617004938 86 134 3.0 7.0 0.00 0.00 0.00 40 1014.7
20210617004840 86 148 3.0 7.0 0.00 0.00 0.00 40 1014.7
20210617004723 86 110 2.0 7.0 0.00 0.00 0.00 40 1014.6
20210617004623 86 137 2.0 7.0 0.00 0.00 0.00 40 1014.6
20210617004525 86 139 3.0 7.0 0.00 0.00 0.00 40 1014.6
20210617004427 86 148 4.0 7.0 0.00 0.00 0.00 39 1014.6
20210617004333 86 135 3.0 7.0 0.00 0.00 0.00 39 1014.5
20210617004235 86 126 3.0 7.0 0.00 0.00 0.00 39 1014.5
20210617004136 86 144 4.0 7.0 0.00 0.00 0.00 39 1014.5
20210617004038 86 125 4.0 8.0 0.00 0.00 0.00 39 1014.5
20210617003939 87 138 3.0 7.0 0.00 0.00 0.00 39 1014.5
20210617003822 87 128 3.0 7.0 0.00 0.00 0.00 38 1014.5
20210617003728 87 143 3.0 7.0 0.00 0.00 0.00 38 1014.5
20210617003630 87 130 3.0 7.0 0.00 0.00 0.00 38 1014.5
20210617003530 87 136 3.0 7.0 0.00 0.00 0.00 38 1014.5
20210617003432 87 139 3.0 7.0 0.00 0.00 0.00 37 1014.5
20210617003332 87 127 3.0 7.0 0.00 0.00 0.00 38 1014.5
20210617003232 87 150 3.0 7.0 0.00 0.00 0.00 39 1014.5
20210617003134 87 157 3.0 7.0 0.00 0.00 0.00 38 1014.5
20210617003040 87 144 3.0 7.0 0.00 0.00 0.00 38 1014.5
20210617002923 87 145 3.0 7.0 0.00 0.00 0.00 39 1014.5
20210617002824 87 135 3.0 7.0 0.00 0.00 0.00 38 1014.5
20210617002726 87 119 3.0 7.0 0.00 0.00 0.00 38 1014.4
20210617002627 87 187 3.0 7.0 0.00 0.00 0.00 38 1014.4
20210617002528 88 140 3.0 7.0 0.00 0.00 0.00 39 1014.4
20210617002435 88 137 3.0 7.0 0.00 0.00 0.00 37 1014.4
20210617002337 88 153 4.0 7.0 0.00 0.00 0.00 37 1014.4
20210617002239 88 115 3.0 7.0 0.00 0.00 0.00 37 1014.3
20210617002140 88 158 4.0 7.0 0.00 0.00 0.00 37 1014.4
20210617002041 88 155 4.0 7.0 0.00 0.00 0.00 36 1014.3
20210617001924 88 121 4.0 7.0 0.00 0.00 0.00 37 1014.4
20210617001829 88 129 4.0 7.0 0.00 0.00 0.00 37 1014.4
20210617001731 88 134 3.0 7.0 0.00 0.00 0.00 37 1014.4
20210617001632 88 139 3.0 7.0 0.00 0.00 0.00 37 1014.4
20210617001533 88 151 3.0 7.0 0.00 0.00 0.00 37 1014.4
20210617001436 88 128 3.0 7.0 0.00 0.00 0.00 37 1014.4
20210617001337 88 144 3.0 9.0 0.00 0.00 0.00 37 1014.4
20210617001241 88 136 3.0 9.0 0.00 0.00 0.00 37 1014.4
20210617001123 88 132 4.0 9.0 0.00 0.00 0.00 36 1014.4
20210617001025 89 126 4.0 9.0 0.00 0.00 0.00 36 1014.4
20210617000925 89 136 3.0 9.0 0.00 0.00 0.00 37 1014.3
20210617000826 89 141 4.0 9.0 0.00 0.00 0.00 36 1014.4
20210617000726 89 99 4.0 9.0 0.00 0.00 0.00 37 1014.3
20210617000633 89 136 5.0 9.0 0.00 0.00 0.00 36 1014.3
20210617000535 89 148 5.0 9.0 0.00 0.00 0.00 36 1014.3
20210617000438 89 153 4.0 9.0 0.00 0.00 0.00 37 1014.3
20210617000340 89 142 3.0 9.0 0.00 0.00 0.00 36 1014.3
20210617000242 89 158 2.0 8.0 0.00 0.00 0.00 37 1014.3
20210617000123 89 165 2.0 8.0 0.00 0.00 0.00 37 1014.3
20210617000023 89 159 2.0 8.0 0.00 0.00 0.00 36 1014.3
20210616235925 89 167 3.0 8.0 0.00 0.00 0.00 35 1014.3
20210616235826 89 126 4.0 7.0 0.00 0.00 0.00 36 1014.4
20210616235728 89 157 3.0 7.0 0.00 0.00 0.00 36 1014.4
20210616235631 89 146 3.0 8.0 0.00 0.00 0.00 36 1014.4
20210616235533 89 135 2.0 8.0 0.00 0.00 0.00 36 1014.4
20210616235434 89 153 2.0 8.0 0.00 0.00 0.00 37 1014.5
20210616235341 89 165 2.0 8.0 0.00 0.00 0.00 37 1014.5
20210616235222 89 159 2.0 8.0 0.00 0.00 0.00 38 1014.5
20210616235124 89 173 2.0 8.0 0.00 0.00 0.00 38 1014.5
20210616235025 89 164 2.0 8.0 0.00 0.00 0.00 37 1014.5
20210616234927 89 140 2.0 8.0 0.00 0.00 0.00 36 1014.5
20210616234828 89 143 3.0 8.0 0.00 0.00 0.00 37 1014.5
20210616234733 89 157 3.0 8.0 0.00 0.00 0.00 36 1014.5
20210616234636 89 155 4.0 8.0 0.00 0.00 0.00 37 1014.5
20210616234537 89 115 3.0 8.0 0.00 0.00 0.00 37 1014.5
20210616234439 89 155 2.0 7.0 0.00 0.00 0.00 37 1014.5
20210616234338 89 169 2.0 7.0 0.00 0.00 0.00 37 1014.5
20210616234239 89 166 3.0 7.0 0.00 0.00 0.00 36 1014.5
20210616234123 89 154 3.0 7.0 0.00 0.00 0.00 36 1014.5
20210616234026 89 157 3.0 6.0 0.00 0.00 0.00 35 1014.5
20210616233927 89 135 3.0 6.0 0.00 0.00 0.00 35 1014.5
20210616233828 89 161 4.0 6.0 0.00 0.00 0.00 35 1014.5
20210616233729 89 134 3.0 6.0 0.00 0.00 0.00 36 1014.5
20210616233632 89 154 4.0 6.0 0.00 0.00 0.00 36 1014.5
20210616233538 89 173 4.0 7.0 0.00 0.00 0.00 36 1014.5
20210616233439 89 132 3.0 6.0 0.00 0.00 0.00 37 1014.5
20210616233340 89 165 2.0 7.0 0.00 0.00 0.00 38 1014.5
20210616233240 89 162 2.0 7.0 0.00 0.00 0.00 38 1014.5
20210616233123 89 170 2.0 7.0 0.00 0.00 0.00 38 1014.4
20210616233025 89 178 3.0 7.0 0.00 0.00 0.00 37 1014.4
20210616232931 89 152 3.0 7.0 0.00 0.00 0.00 37 1014.4
20210616232832 89 135 3.0 7.0 0.00 0.00 0.00 37 1014.4
20210616232734 89 157 2.0 7.0 0.00 0.00 0.00 36 1014.4
20210616232635 89 126 2.0 7.0 0.00 0.00 0.00 37 1014.4
20210616232537 89 164 3.0 10.0 0.00 0.00 0.00 36 1014.5
20210616232437 89 172 3.0 10.0 0.00 0.00 0.00 37 1014.4
20210616232323 89 144 2.0 10.0 0.00 0.00 0.00 36 1014.4
20210616232225 89 140 3.0 10.0 0.00 0.00 0.00 36 1014.4
20210616232126 89 146 4.0 10.0 0.00 0.00 0.00 36 1014.4
20210616232027 89 122 4.0 10.0 0.00 0.00 0.00 35 1014.4
20210616231930 89 150 4.0 10.0 0.00 0.00 0.00 35 1014.4
20210616231831 89 129 4.0 12.0 0.00 0.00 0.00 37 1014.4
20210616231733 89 173 5.0 12.0 0.00 0.00 0.00 35 1014.4
20210616231637 89 157 6.0 12.0 0.00 0.00 0.00 35 1014.4
20210616231538 89 128 5.0 12.0 0.00 0.00 0.00 36 1014.4
20210616231441 89 157 4.0 12.0 0.00 0.00 0.00 35 1014.4
20210616231322 89 114 5.0 12.0 0.00 0.00 0.00 36 1014.4
20210616231224 90 175 5.0 12.0 0.00 0.00 0.00 35 1014.4
20210616231126 90 133 5.0 12.0 0.00 0.00 0.00 34 1014.5
20210616231031 90 117 5.0 12.0 0.00 0.00 0.00 35 1014.5
20210616230933 90 84 5.0 12.0 0.00 0.00 0.00 34 1014.5
20210616230836 90 116 5.0 9.0 0.00 0.00 0.00 34 1014.5
20210616230739 90 138 5.0 9.0 0.00 0.00 0.00 34 1014.5
20210616230640 90 115 5.0 8.0 0.00 0.00 0.00 35 1014.5
20210616230541 90 154 5.0 8.0 0.00 0.00 0.00 34 1014.5
20210616230426 90 130 4.0 9.0 0.00 0.00 0.00 35 1014.6
20210616230328 90 154 4.0 9.0 0.00 0.00 0.00 35 1014.5
20210616230230 90 136 4.0 8.0 0.00 0.00 0.00 35 1014.6
20210616230133 90 159 5.0 8.0 0.00 0.00 0.00 34 1014.6
20210616230035 90 116 5.0 8.0 0.00 0.00 0.00 34 1014.6
20210616225934 90 121 4.0 7.0 0.00 0.00 0.00 34 1014.5
20210616225840 90 140 3.0 7.0 0.00 0.00 0.00 35 1014.6
20210616225722 90 164 3.0 7.0 0.00 0.00 0.00 34 1014.6
20210616225624 90 141 4.0 7.0 0.00 0.00 0.00 34 1014.6
20210616225527 90 142 4.0 7.0 0.00 0.00 0.00 35 1014.7
20210616225428 90 142 3.0 8.0 0.00 0.00 0.00 35 1014.7
20210616225330 90 153 3.0 8.0 0.00 0.00 0.00 35 1014.6
20210616225237 90 164 2.0 8.0 0.00 0.00 0.00 35 1014.7
20210616225139 90 134 3.0 8.0 0.00 0.00 0.00 34 1014.7
20210616225041 90 134 3.0 8.0 0.00 0.00 0.00 34 1014.7
20210616224923 90 118 2.0 8.0 0.00 0.00 0.00 34 1014.8
20210616224825 90 140 2.0 8.0 0.00 0.00 0.00 36 1014.8
20210616224727 90 151 3.0 8.0 0.00 0.00 0.00 35 1014.8
20210616224634 90 140 3.0 8.0 0.00 0.00 0.00 36 1014.8
20210616224536 90 127 3.0 9.0 0.00 0.00 0.00 37 1014.8
20210616224436 90 141 3.0 9.0 0.00 0.00 0.00 36 1014.7
20210616224337 90 144 3.0 9.0 0.00 0.00 0.00 35 1014.8
20210616224238 90 105 3.0 9.0 0.00 0.00 0.00 36 1014.8
20210616224141 90 148 2.0 9.0 0.00 0.00 0.00 36 1014.8
20210616224028 90 156 2.0 9.0 0.00 0.00 0.00 36 1014.7
20210616223929 90 155 3.0 9.0 0.00 0.00 0.00 35 1014.8
20210616223830 90 164 4.0 9.0 0.00 0.00 0.00 34 1014.8
20210616223731 90 118 5.0 9.0 0.00 0.00 0.00 33 1014.8
20210616223632 90 132 5.0 9.0 0.00 0.00 0.00 34 1014.8
20210616223533 90 143 4.0 9.0 0.00 0.00 0.00 33 1014.8
20210616223434 90 138 4.0 9.0 0.00 0.00 0.00 32 1014.7
20210616223340 91 126 4.0 11.0 0.00 0.00 0.00 32 1014.7
20210616223241 91 119 4.0 11.0 0.00 0.00 0.00 33 1014.7
20210616223123 91 146 4.0 11.0 0.00 0.00 0.00 32 1014.7
20210616223026 91 128 4.0 11.0 0.00 0.00 0.00 34 1014.7
20210616222926 91 107 4.0 11.0 0.00 0.00 0.00 33 1014.7
20210616222829 91 148 6.0 11.0 0.00 0.00 0.00 32 1014.7
20210616222736 91 126 5.0 11.0 0.00 0.00 0.00 32 1014.7
20210616222638 91 136 5.0 11.0 0.00 0.00 0.00 33 1014.7
20210616222539 92 114 5.0 11.0 0.00 0.00 0.00 33 1014.8
20210616222442 92 140 4.0 11.0 0.00 0.00 0.00 33 1014.8
20210616222340 92 119 3.0 10.0 0.00 0.00 0.00 34 1014.8
20210616222241 92 155 4.0 10.0 0.00 0.00 0.00 34 1014.8
20210616222127 92 140 4.0 10.0 0.00 0.00 0.00 32 1014.8
20210616222028 92 138 4.0 10.0 0.00 0.00 0.00 32 1014.8
20210616221929 92 86 6.0 10.0 0.00 0.00 0.00 32 1014.8
20210616221830 92 127 5.0 10.0 0.00 0.00 0.00 33 1014.8
20210616221733 92 95 4.0 9.0 0.00 0.00 0.00 33 1014.8
20210616221635 92 149 3.0 7.0 0.00 0.00 0.00 34 1014.8
20210616221539 92 162 2.0 7.0 0.00 0.00 0.00 36 1014.8
20210616221441 92 142 2.0 5.0 0.00 0.00 0.00 36 1014.9
20210616221323 92 163 3.0 7.0 0.00 0.00 0.00 33 1014.9
20210616221225 92 159 3.0 9.0 0.00 0.00 0.00 34 1014.9
20210616221125 92 148 2.0 9.0 0.00 0.00 0.00 34 1014.9
20210616221027 92 188 2.0 13.0 0.00 0.00 0.00 33 1015.0
20210616220933 92 205 1.0 13.0 0.00 0.00 0.00 34 1015.0
20210616220834 92 186 2.0 13.0 0.00 0.00 0.00 34 1015.0
20210616220735 92 188 2.0 13.0 0.00 0.00 0.00 33 1015.0
20210616220636 92 146 2.0 13.0 0.00 0.00 0.00 33 1014.9
20210616220538 92 168 4.0 13.0 0.00 0.00 0.00 32 1015.0
20210616220439 92 121 5.0 13.0 0.00 0.00 0.00 32 1015.0
20210616220325 92 140 4.0 13.0 0.00 0.00 0.00 32 1015.0
20210616220228 92 115 5.0 13.0 0.00 0.00 0.00 32 1015.0
20210616220130 92 140 5.0 13.0 0.00 0.00 0.00 31 1015.0
20210616220032 92 128 5.0 8.0 0.00 0.00 0.00 32 1015.1
20210616215934 92 144 4.0 8.0 0.00 0.00 0.00 33 1015.0
20210616215834 92 181 4.0 8.0 0.00 0.00 0.00 33 1015.1
20210616215736 92 117 5.0 8.0 0.00 0.00 0.00 32 1015.0
20210616215641 92 134 6.0 9.0 0.00 0.00 0.00 31 1015.1
20210616215542 92 103 5.0 8.0 0.00 0.00 0.00 31 1015.1
20210616215425 92 136 3.0 8.0 0.00 0.00 0.00 32 1015.1
20210616215326 92 123 3.0 8.0 0.00 0.00 0.00 32 1015.2
20210616215229 92 131 3.0 8.0 0.00 0.00 0.00 32 1015.2
20210616215131 92 150 3.0 8.0 0.00 0.00 0.00 32 1015.2
20210616215037 92 150 3.0 8.0 0.00 0.00 0.00 32 1015.2
20210616214939 92 113 3.0 8.0 0.00 0.00 0.00 31 1015.3
20210616214841 92 133 4.0 8.0 0.00 0.00 0.00 32 1015.3
20210616214741 92 132 4.0 8.0 0.00 0.00 0.00 33 1015.3
20210616214642 92 155 3.0 9.0 0.00 0.00 0.00 35 1015.3
20210616214523 92 173 2.0 9.0 0.00 0.00 0.00 33 1015.3
20210616214428 92 161 3.0 9.0 0.00 0.00 0.00 34 1015.4
20210616214330 92 194 3.0 9.0 0.00 0.00 0.00 34 1015.4
20210616214233 92 172 4.0 9.0 0.00 0.00 0.00 35 1015.5
20210616214134 92 131 3.0 9.0 0.00 0.00 0.00 33 1015.5
20210616214036 92 132 4.0 9.0 0.00 0.00 0.00 33 1015.5
20210616213937 92 138 5.0 9.0 0.00 0.00 0.00 32 1015.5
20210616213823 92 130 4.0 9.0 0.00 0.00 0.00 32 1015.6
20210616213724 92 142 3.0 8.0 0.00 0.00 0.00 34 1015.6
20210616213625 92 135 3.0 8.0 0.00 0.00 0.00 34 1015.5
20210616213527 92 152 4.0 8.0 0.00 0.00 0.00 33 1015.5
20210616213428 92 148 3.0 8.0 0.00 0.00 0.00 33 1015.6
20210616213330 92 94 2.0 6.0 0.00 0.00 0.00 34 1015.5
20210616213237 92 134 2.0 6.0 0.00 0.00 0.00 36 1015.6
20210616213140 92 154 2.0 6.0 0.00 0.00 0.00 35 1015.6
20210616213042 92 178 2.0 6.0 0.00 0.00 0.00 34 1015.5
20210616212943 92 180 3.0 8.0 0.00 0.00 0.00 33 1015.6
20210616212824 92 135 3.0 11.0 0.00 0.00 0.00 33 1015.6
20210616212726 92 170 2.0 11.0 0.00 0.00 0.00 33 1015.6
20210616212632 92 136 2.0 11.0 0.00 0.00 0.00 35 1015.7
20210616212533 92 140 3.0 11.0 0.00 0.00 0.00 33 1015.7
20210616212435 92 127 3.0 11.0 0.00 0.00 0.00 32 1015.8
20210616212337 92 148 3.0 11.0 0.00 0.00 0.00 33 1015.8
20210616212239 92 130 3.0 11.0 0.00 0.00 0.00 32 1015.8
20210616212140 92 109 4.0 11.0 0.00 0.00 0.00 32 1015.8
20210616212025 92 73 6.0 11.0 0.00 0.00 0.00 32 1015.8
20210616211927 93 103 6.0 11.0 0.00 0.00 0.00 31 1015.8
20210616211830 93 132 5.0 9.0 0.00 0.00 0.00 31 1015.8
20210616211731 93 113 4.0 9.0 0.00 0.00 0.00 32 1015.8
20210616211633 93 125 2.0 7.0 0.00 0.00 0.00 33 1015.9
20210616211536 93 123 1.0 7.0 0.00 0.00 0.00 33 1015.9
20210616211437 93 134 2.0 7.0 0.00 0.00 0.00 31 1015.9
20210616211323 93 123 2.0 7.0 0.00 0.00 0.00 32 1015.9
20210616211224 93 154 3.0 7.0 0.00 0.00 0.00 34 1015.9
20210616211126 93 146 3.0 7.0 0.00 0.00 0.00 33 1015.9
20210616211027 93 153 3.0 7.0 0.00 0.00 0.00 33 1015.9
20210616210929 93 167 2.0 7.0 0.00 0.00 0.00 33 1016.0
20210616210831 93 170 2.0 7.0 0.00 0.00 0.00 33 1015.9
20210616210737 93 173 2.0 7.0 0.00 0.00 0.00 33 1015.9
20210616210638 93 126 2.0 7.0 0.00 0.00 0.00 34 1015.9
20210616210539 93 180 3.0 7.0 0.00 0.00 0.00 32 1016.0
20210616210441 93 169 3.0 7.0 0.00 0.00 0.00 31 1015.9
20210616210342 93 128 5.0 7.0 0.00 0.00 0.00 31 1015.9
20210616210221 93 92 4.0 8.0 0.00 0.00 0.00 31 1015.9
20210616210150 93 160 4.0 8.0 0.00 0.00 0.00 33 1015.9
20210616210040 93 134 3.0 7.0 0.00 0.00 0.00 33 1015.9
20210616205937 93 168 3.0 7.0 0.00 0.00 0.00 32 1015.9
20210616205839 93 180 3.0 10.0 0.00 0.00 0.00 32 1015.9
20210616205739 93 125 2.0 10.0 0.00 0.00 0.00 33 1016.0
20210616205640 93 171 2.0 10.0 0.00 0.00 0.00 32 1016.0
20210616205526 93 204 3.0 10.0 0.00 0.00 0.00 34 1016.0
20210616205428 93 11 3.0 10.0 0.00 0.00 0.00 32 1016.0
20210616205329 93 167 3.0 10.0 0.00 0.00 0.00 31 1016.0
20210616205232 93 157 4.0 10.0 0.00 0.00 0.00 32 1016.0
20210616205134 93 134 5.0 10.0 0.00 0.00 0.00 30 1016.0
20210616205034 93 136 5.0 10.0 0.00 0.00 0.00 31 1016.0
20210616204937 93 108 5.0 10.0 0.00 0.00 0.00 31 1016.1
20210616204842 93 103 4.0 7.0 0.00 0.00 0.00 31 1016.1
20210616204723 93 135 3.0 7.0 0.00 0.00 0.00 31 1016.1
20210616204625 93 145 2.0 7.0 0.00 0.00 0.00 32 1016.1
20210616204528 93 153 2.0 7.0 0.00 0.00 0.00 33 1016.1
20210616204431 93 161 3.0 7.0 0.00 0.00 0.00 33 1016.1
20210616204333 93 173 3.0 7.0 0.00 0.00 0.00 32 1016.1
20210616204238 93 168 3.0 7.0 0.00 0.00 0.00 32 1016.1
20210616204140 93 114 3.0 7.0 0.00 0.00 0.00 33 1016.2
20210616204041 93 163 3.0 6.0 0.00 0.00 0.00 33 1016.2
20210616203943 93 134 3.0 6.0 0.00 0.00 0.00 32 1016.2
20210616203824 93 163 3.0 7.0 0.00 0.00 0.00 31 1016.2
20210616203725 93 161 2.0 7.0 0.00 0.00 0.00 31 1016.2
20210616203632 93 130 2.0 7.0 0.00 0.00 0.00 31 1016.2
20210616203532 93 120 2.0 7.0 0.00 0.00 0.00 31 1016.2
20210616203432 93 162 3.0 7.0 0.00 0.00 0.00 33 1016.2
20210616203335 93 179 2.0 8.0 0.00 0.00 0.00 32 1016.2
20210616203236 93 134 2.0 8.0 0.00 0.00 0.00 33 1016.2
20210616203137 93 94 2.0 8.0 0.00 0.00 0.00 33 1016.2
20210616203023 93 196 3.0 8.0 0.00 0.00 0.00 32 1016.2
20210616202924 93 165 3.0 8.0 0.00 0.00 0.00 33 1016.2
20210616202825 93 125 3.0 8.0 0.00 0.00 0.00 31 1016.2
20210616202725 93 164 2.0 8.0 0.00 0.00 0.00 31 1016.2
20210616202626 93 190 2.0 8.0 0.00 0.00 0.00 32 1016.3
20210616202531 93 148 2.0 8.0 0.00 0.00 0.00 32 1016.3
20210616202435 93 153 2.0 6.0 0.00 0.00 0.00 33 1016.3
20210616202336 93 182 2.0 5.0 0.00 0.00 0.00 32 1016.3
20210616202236 93 178 2.0 5.0 0.00 0.00 0.00 34 1016.3
20210616202137 93 186 1.0 5.0 0.00 0.00 0.00 32 1016.3
20210616202036 93 188 1.0 5.0 0.00 0.00 0.00 33 1016.4
20210616201937 93 196 1.0 5.0 0.00 0.00 0.00 32 1016.4
20210616201824 93 191 2.0 5.0 0.00 0.00 0.00 32 1016.4
20210616201745 93 181 3.0 5.0 0.00 0.00 0.00 33 1016.4
20210616201624 93 153 3.0 5.0 0.00 0.00 0.00 34 1016.4
20210616201526 92 176 2.0 5.0 0.00 0.00 0.00 34 1016.4
20210616201429 92 179 1.0 5.0 0.00 0.00 0.00 33 1016.3
20210616201329 92 183 1.0 5.0 0.00 0.00 0.00 33 1016.4
20210616201232 92 191 1.0 5.0 0.00 0.00 0.00 33 1016.4
20210616201139 92 192 1.0 5.0 0.00 0.00 0.00 34 1016.4
20210616201040 92 144 2.0 5.0 0.00 0.00 0.00 34 1016.4
20210616200942 92 178 2.0 5.0 0.00 0.00 0.00 34 1016.4
20210616200842 92 187 2.0 5.0 0.00 0.00 0.00 35 1016.4
20210616200745 92 160 2.0 10.0 0.00 0.00 0.00 36 1016.4
20210616200708 91 216 2.0 10.0 0.00 0.00 0.00 36 1016.4
20210616200441 91 216 2.0 10.0 0.00 0.00 0.00 36 1016.4
20210616200324 91 216 2.0 10.0 0.00 0.00 0.00 36 1016.4
20210616200224 91 204 2.0 10.0 0.00 0.00 0.00 36 1016.4
20210616200127 91 176 3.0 10.0 0.00 0.00 0.00 35 1016.4
20210616200029 91 161 3.0 10.0 0.00 0.00 0.00 35 1016.4
20210616195930 91 163 3.0 10.0 0.00 0.00 0.00 36 1016.5
20210616195836 91 150 3.0 10.0 0.00 0.00 0.00 35 1016.4
20210616195737 91 217 3.0 10.0 0.00 0.00 0.00 35 1016.4
20210616195639 91 164 3.0 10.0 0.00 0.00 0.00 34 1016.4
20210616195541 91 135 4.0 10.0 0.00 0.00 0.00 33 1016.4
20210616195441 91 137 3.0 9.0 0.00 0.00 0.00 33 1016.4
20210616195343 91 116 3.0 9.0 0.00 0.00 0.00 35 1016.4
20210616195229 91 113 4.0 9.0 0.00 0.00 0.00 35 1016.4
20210616195132 91 74 3.0 9.0 0.00 0.00 0.00 33 1016.5
20210616195034 91 75 1.0 9.0 0.00 0.00 0.00 36 1016.5
20210616194936 91 151 2.0 9.0 0.00 0.00 0.00 36 1016.4
20210616194838 91 152 3.0 9.0 0.00 0.00 0.00 35 1016.5
20210616194740 91 137 4.0 9.0 0.00 0.00 0.00 34 1016.5
20210616194624 91 167 4.0 9.0 0.00 0.00 0.00 36 1016.6
20210616194527 91 146 3.0 8.0 0.00 0.00 0.00 37 1016.5
20210616194428 90 162 2.0 8.0 0.00 0.00 0.00 34 1016.5
20210616194330 90 136 3.0 8.0 0.00 0.00 0.00 36 1016.5
20210616194233 90 159 4.0 8.0 0.00 0.00 0.00 37 1016.5
20210616194135 90 159 4.0 8.0 0.00 0.00 0.00 35 1016.5
20210616194036 90 136 3.0 7.0 0.00 0.00 0.00 35 1016.5
20210616193941 90 154 3.0 7.0 0.00 0.00 0.00 36 1016.4
20210616193823 90 159 3.0 10.0 0.00 0.00 0.00 36 1016.5
20210616193726 90 150 3.0 10.0 0.00 0.00 0.00 34 1016.5
20210616193626 90 139 4.0 10.0 0.00 0.00 0.00 34 1016.4
20210616193528 90 107 4.0 11.0 0.00 0.00 0.00 35 1016.4
20210616193429 90 90 3.0 11.0 0.00 0.00 0.00 34 1016.4
20210616193334 90 155 3.0 11.0 0.00 0.00 0.00 34 1016.5
20210616193237 90 127 4.0 11.0 0.00 0.00 0.00 34 1016.5
20210616193139 90 138 4.0 11.0 0.00 0.00 0.00 34 1016.5
20210616193040 90 124 4.0 11.0 0.00 0.00 0.00 36 1016.5
20210616192941 90 155 4.0 11.0 0.00 0.00 0.00 37 1016.5
20210616192824 90 155 3.0 11.0 0.00 0.00 0.00 37 1016.5
20210616192729 89 166 4.0 11.0 0.00 0.00 0.00 37 1016.5
20210616192630 89 174 5.0 11.0 0.00 0.00 0.00 35 1016.5
20210616192533 89 142 5.0 12.0 0.00 0.00 0.00 37 1016.5
20210616192435 89 124 3.0 12.0 0.00 0.00 0.00 36 1016.5
20210616192336 89 161 4.0 12.0 0.00 0.00 0.00 36 1016.5
20210616192237 89 163 3.0 12.0 0.00 0.00 0.00 36 1016.5
20210616192124 89 157 3.0 12.0 0.00 0.00 0.00 35 1016.6
20210616192027 89 121 4.0 12.0 0.00 0.00 0.00 34 1016.6
20210616191928 89 105 6.0 12.0 0.00 0.00 0.00 34 1016.6
20210616191830 89 98 7.0 12.0 0.00 0.00 0.00 35 1016.7
20210616191732 89 128 7.0 12.0 0.00 0.00 0.00 35 1016.7
20210616191634 89 112 6.0 12.0 0.00 0.00 0.00 34 1016.6
20210616191539 90 155 4.0 11.0 0.00 0.00 0.00 34 1016.7
20210616191441 90 138 4.0 11.0 0.00 0.00 0.00 34 1016.7
20210616191323 90 92 4.0 11.0 0.00 0.00 0.00 34 1016.8
20210616191225 90 131 4.0 11.0 0.00 0.00 0.00 34 1016.8
20210616191125 90 96 5.0 11.0 0.00 0.00 0.00 34 1016.8
20210616191027 90 101 6.0 11.0 0.00 0.00 0.00 35 1016.8
20210616190933 90 155 5.0 11.0 0.00 0.00 0.00 35 1016.9
20210616190835 90 155 4.0 11.0 0.00 0.00 0.00 36 1016.9
20210616190737 90 143 3.0 11.0 0.00 0.00 0.00 37 1016.9
20210616190638 89 163 4.0 11.0 0.00 0.00 0.00 37 1016.9
20210616190541 89 165 5.0 11.0 0.00 0.00 0.00 36 1016.9
20210616190442 89 128 5.0 11.0 0.00 0.00 0.00 35 1017.0
20210616190327 89 102 2.0 10.0 0.00 0.00 0.00 37 1017.0
20210616190228 89 171 2.0 10.0 0.00 0.00 0.00 35 1017.0
20210616190131 89 143 2.0 10.0 0.00 0.00 0.00 35 1017.1
20210616190032 89 134 3.0 10.0 0.00 0.00 0.00 36 1017.1
20210616185931 89 149 4.0 10.0 0.00 0.00 0.00 35 1017.1
20210616185831 89 158 5.0 10.0 0.00 0.00 0.00 35 1017.2
20210616185734 89 124 5.0 10.0 0.00 0.00 0.00 35 1017.1
20210616185639 89 132 6.0 10.0 0.00 0.00 0.00 35 1017.1
20210616185539 89 153 5.0 10.0 0.00 0.00 0.00 35 1017.1
20210616185440 89 118 3.0 10.0 0.00 0.00 0.00 35 1017.1
20210616185342 89 177 4.0 10.0 0.00 0.00 0.00 36 1017.1
20210616185223 89 169 5.0 11.0 0.00 0.00 0.00 35 1017.1
20210616185126 89 150 5.0 10.0 0.00 0.00 0.00 35 1017.1
20210616185031 89 123 6.0 10.0 0.00 0.00 0.00 35 1017.2
20210616184933 89 106 6.0 10.0 0.00 0.00 0.00 36 1017.2
20210616184834 88 149 5.0 9.0 0.00 0.00 0.00 37 1017.2
20210616184737 88 131 4.0 9.0 0.00 0.00 0.00 37 1017.2
20210616184635 88 161 3.0 8.0 0.00 0.00 0.00 38 1017.3
20210616184536 88 202 3.0 8.0 0.00 0.00 0.00 38 1017.3
20210616184423 88 202 3.0 8.0 0.00 0.00 0.00 38 1017.2
20210616184324 88 178 2.0 8.0 0.00 0.00 0.00 38 1017.3
20210616184226 88 191 3.0 8.0 0.00 0.00 0.00 39 1017.3
20210616184126 87 169 4.0 8.0 0.00 0.00 0.00 38 1017.3
20210616184028 87 161 4.0 8.0 0.00 0.00 0.00 38 1017.3
20210616183930 87 159 4.0 8.0 0.00 0.00 0.00 38 1017.3
20210616183837 87 167 3.0 8.0 0.00 0.00 0.00 37 1017.3
20210616183737 87 121 3.0 10.0 0.00 0.00 0.00 39 1017.3
20210616183638 87 194 3.0 10.0 0.00 0.00 0.00 40 1017.3
20210616183540 87 156 4.0 10.0 0.00 0.00 0.00 38 1017.3
20210616183422 87 121 4.0 10.0 0.00 0.00 0.00 39 1017.4
20210616183325 87 157 4.0 11.0 0.00 0.00 0.00 36 1017.3
20210616183231 87 120 5.0 11.0 0.00 0.00 0.00 38 1017.3
20210616183131 87 147 4.0 11.0 0.00 0.00 0.00 37 1017.3
20210616183035 87 91 4.0 11.0 0.00 0.00 0.00 37 1017.4
20210616182936 87 140 5.0 11.0 0.00 0.00 0.00 37 1017.4
20210616182838 87 119 4.0 11.0 0.00 0.00 0.00 37 1017.4
20210616182738 87 95 4.0 11.0 0.00 0.00 0.00 37 1017.4
20210616182623 87 130 6.0 11.0 0.00 0.00 0.00 37 1017.4
20210616182525 87 155 7.0 11.0 0.00 0.00 0.00 37 1017.4
20210616182427 87 124 5.0 10.0 0.00 0.00 0.00 38 1017.4
20210616182328 87 131 4.0 10.0 0.00 0.00 0.00 38 1017.4
20210616182230 87 135 4.0 10.0 0.00 0.00 0.00 37 1017.4
20210616182131 87 63 5.0 10.0 0.00 0.00 0.00 37 1017.4
20210616182033 87 147 5.0 10.0 0.00 0.00 0.00 37 1017.4
20210616181938 87 104 5.0 10.0 0.00 0.00 0.00 38 1017.4
20210616181836 87 111 5.0 11.0 0.00 0.00 0.00 37 1017.4
20210616181736 87 137 4.0 11.0 0.00 0.00 0.00 38 1017.4
20210616181638 87 111 4.0 11.0 0.00 0.00 0.00 37 1017.4
20210616181539 87 107 5.0 11.0 0.00 0.00 0.00 37 1017.4
20210616181439 87 136 5.0 11.0 0.00 0.00 0.00 36 1017.4
20210616181325 87 88 5.0 11.0 0.00 0.00 0.00 36 1017.5
20210616181226 87 90 6.0 11.0 0.00 0.00 0.00 37 1017.5
20210616181129 87 106 6.0 11.0 0.00 0.00 0.00 36 1017.5
20210616181031 87 136 7.0 11.0 0.00 0.00 0.00 36 1017.5
20210616180933 87 131 7.0 12.0 0.00 0.00 0.00 36 1017.5
20210616180835 87 92 7.0 12.0 0.00 0.00 0.00 36 1017.5
20210616180723 87 115 7.0 11.0 0.00 0.00 0.00 36 1017.5
20210616180623 87 119 5.0 11.0 0.00 0.00 0.00 37 1017.6
20210616180525 87 135 4.0 10.0 0.00 0.00 0.00 37 1017.5
20210616180428 87 113 2.0 9.0 0.00 0.00 0.00 37 1017.5
20210616180330 87 138 2.0 9.0 0.00 0.00 0.00 39 1017.5
20210616180232 87 144 3.0 9.0 0.00 0.00 0.00 39 1017.5
20210616180137 87 128 3.0 9.0 0.00 0.00 0.00 37 1017.6
20210616180041 87 110 2.0 9.0 0.00 0.00 0.00 38 1017.6
20210616175941 87 134 3.0 13.0 0.00 0.00 0.00 39 1017.7
20210616175842 87 136 5.0 13.0 0.00 0.00 0.00 36 1017.7
20210616175724 87 141 6.0 15.0 0.00 0.00 0.00 37 1017.7
20210616175625 87 139 6.0 15.0 0.00 0.00 0.00 37 1017.8
20210616175531 87 153 5.0 15.0 0.00 0.00 0.00 37 1017.8
20210616175434 87 153 5.0 15.0 0.00 0.00 0.00 37 1017.8
20210616175336 87 144 5.0 15.0 0.00 0.00 0.00 39 1017.8
20210616175238 87 144 6.0 15.0 0.00 0.00 0.00 37 1017.8
20210616175139 87 121 6.0 15.0 0.00 0.00 0.00 37 1017.7
20210616175042 87 122 8.0 15.0 0.00 0.00 0.00 36 1017.8
20210616174927 87 86 7.0 15.0 0.00 0.00 0.00 37 1017.7
20210616174829 88 144 4.0 10.0 0.00 0.00 0.00 35 1017.8
20210616174731 88 71 5.0 10.0 0.00 0.00 0.00 35 1017.8
20210616174632 88 127 6.0 10.0 0.00 0.00 0.00 35 1017.9
20210616174534 88 122 6.0 10.0 0.00 0.00 0.00 36 1017.9
20210616174436 88 140 4.0 10.0 0.00 0.00 0.00 37 1017.9
20210616174337 88 83 3.0 10.0 0.00 0.00 0.00 39 1017.9
20210616174222 88 159 3.0 10.0 0.00 0.00 0.00 38 1017.9
20210616174125 87 150 4.0 10.0 0.00 0.00 0.00 39 1017.9
20210616174026 87 157 5.0 10.0 0.00 0.00 0.00 38 1017.9
20210616173927 87 168 4.0 9.0 0.00 0.00 0.00 37 1017.9
20210616173827 87 89 4.0 9.0 0.00 0.00 0.00 36 1018.0
20210616173730 87 139 5.0 9.0 0.00 0.00 0.00 35 1018.0
20210616173636 87 111 4.0 9.0 0.00 0.00 0.00 36 1018.0
20210616173537 87 107 4.0 9.0 0.00 0.00 0.00 37 1018.0
20210616173439 87 165 4.0 11.0 0.00 0.00 0.00 36 1018.0
20210616173340 87 152 4.0 11.0 0.00 0.00 0.00 39 1018.0
20210616173223 87 163 4.0 11.0 0.00 0.00 0.00 36 1018.1
20210616173124 87 134 4.0 11.0 0.00 0.00 0.00 35 1018.1
20210616173030 87 116 5.0 11.0 0.00 0.00 0.00 35 1018.1
20210616172933 87 138 5.0 11.0 0.00 0.00 0.00 36 1018.2
20210616172835 87 88 5.0 11.0 0.00 0.00 0.00 36 1018.2
20210616172735 87 140 4.0 14.0 0.00 0.00 0.00 37 1018.2
20210616172635 87 154 5.0 14.0 0.00 0.00 0.00 37 1018.2
20210616172538 87 167 5.0 14.0 0.00 0.00 0.00 37 1018.2
20210616172424 87 121 5.0 14.0 0.00 0.00 0.00 38 1018.1
20210616172325 87 158 4.0 14.0 0.00 0.00 0.00 37 1018.2
20210616172227 86 149 4.0 14.0 0.00 0.00 0.00 37 1018.2
20210616172128 86 132 4.0 14.0 0.00 0.00 0.00 37 1018.2
20210616172029 86 158 5.0 14.0 0.00 0.00 0.00 39 1018.3
20210616171931 86 157 6.0 14.0 0.00 0.00 0.00 37 1018.3
20210616171836 86 121 7.0 14.0 0.00 0.00 0.00 37 1018.3
20210616171736 86 143 7.0 12.0 0.00 0.00 0.00 38 1018.3
20210616171635 86 139 6.0 12.0 0.00 0.00 0.00 37 1018.2
20210616171536 86 65 4.0 8.0 0.00 0.00 0.00 37 1018.3
20210616171438 86 113 4.0 8.0 0.00 0.00 0.00 40 1018.3
20210616171339 86 167 4.0 8.0 0.00 0.00 0.00 40 1018.3
20210616171226 86 148 4.0 12.0 0.00 0.00 0.00 39 1018.3
20210616171127 86 178 3.0 12.0 0.00 0.00 0.00 40 1018.3
20210616171030 86 136 3.0 12.0 0.00 0.00 0.00 40 1018.3
20210616170933 85 156 4.0 12.0 0.00 0.00 0.00 39 1018.3
20210616170835 85 163 4.0 12.0 0.00 0.00 0.00 39 1018.3
20210616170737 85 150 5.0 12.0 0.00 0.00 0.00 38 1018.4
20210616170624 85 174 6.0 12.0 0.00 0.00 0.00 38 1018.4
20210616170525 85 152 6.0 12.0 0.00 0.00 0.00 37 1018.3
20210616170427 85 107 5.0 12.0 0.00 0.00 0.00 37 1018.4
20210616170329 85 103 4.0 12.0 0.00 0.00 0.00 37 1018.4
20210616170230 85 138 4.0 12.0 0.00 0.00 0.00 37 1018.4
20210616170130 85 134 5.0 12.0 0.00 0.00 0.00 37 1018.4
20210616170031 85 107 6.0 12.0 0.00 0.00 0.00 38 1018.5
20210616165934 85 90 6.0 12.0 0.00 0.00 0.00 38 1018.5
20210616165834 85 165 7.0 12.0 0.00 0.00 0.00 37 1018.4
20210616165737 85 98 6.0 12.0 0.00 0.00 0.00 37 1018.4
20210616165639 85 147 6.0 12.0 0.00 0.00 0.00 37 1018.4
20210616165539 85 146 6.0 12.0 0.00 0.00 0.00 37 1018.5
20210616165441 85 125 6.0 10.0 0.00 0.00 0.00 37 1018.5
20210616165326 85 119 6.0 10.0 0.00 0.00 0.00 36 1018.5
20210616165229 85 140 6.0 13.0 0.00 0.00 0.00 36 1018.5
20210616165130 85 107 5.0 13.0 0.00 0.00 0.00 36 1018.6
20210616165032 85 140 5.0 13.0 0.00 0.00 0.00 36 1018.6
20210616164934 85 145 4.0 13.0 0.00 0.00 0.00 36 1018.6
20210616164837 85 126 4.0 13.0 0.00 0.00 0.00 37 1018.6
20210616164722 85 159 5.0 13.0 0.00 0.00 0.00 36 1018.7
20210616164624 85 112 5.0 13.0 0.00 0.00 0.00 36 1018.7
20210616164525 85 141 5.0 13.0 0.00 0.00 0.00 38 1018.7
20210616164428 85 134 6.0 13.0 0.00 0.00 0.00 36 1018.7
20210616164331 85 98 5.0 13.0 0.00 0.00 0.00 36 1018.7
20210616164233 85 149 4.0 11.0 0.00 0.00 0.00 38 1018.7
20210616164139 85 155 3.0 11.0 0.00 0.00 0.00 38 1018.8
20210616164042 85 130 3.0 11.0 0.00 0.00 0.00 39 1018.8
20210616163943 85 163 3.0 11.0 0.00 0.00 0.00 39 1018.8
20210616163824 85 148 4.0 11.0 0.00 0.00 0.00 37 1018.8
20210616163726 85 109 6.0 11.0 0.00 0.00 0.00 36 1018.8
20210616163627 85 126 7.0 11.0 0.00 0.00 0.00 36 1018.8
20210616163532 85 130 6.0 9.0 0.00 0.00 0.00 36 1018.8
20210616163435 85 130 4.0 9.0 0.00 0.00 0.00 37 1018.8
20210616163338 85 147 3.0 9.0 0.00 0.00 0.00 39 1018.8
20210616163239 85 157 3.0 9.0 0.00 0.00 0.00 38 1018.9
20210616163140 85 122 3.0 9.0 0.00 0.00 0.00 40 1018.8
20210616163042 85 152 3.0 9.0 0.00 0.00 0.00 40 1018.8
20210616162928 84 159 4.0 9.0 0.00 0.00 0.00 38 1018.8
20210616162830 84 163 5.0 9.0 0.00 0.00 0.00 37 1018.8
20210616162733 84 126 6.0 9.0 0.00 0.00 0.00 37 1018.8
20210616162635 84 117 5.0 9.0 0.00 0.00 0.00 37 1018.8
20210616162535 84 136 5.0 9.0 0.00 0.00 0.00 36 1018.8
20210616162436 84 151 5.0 9.0 0.00 0.00 0.00 37 1018.9
20210616162337 84 136 5.0 9.0 0.00 0.00 0.00 39 1018.9
20210616162224 84 161 4.0 9.0 0.00 0.00 0.00 38 1018.9
20210616162126 84 157 3.0 9.0 0.00 0.00 0.00 41 1018.9
20210616162028 84 123 4.0 9.0 0.00 0.00 0.00 39 1018.9
20210616161931 83 166 4.0 9.0 0.00 0.00 0.00 38 1018.9
20210616161832 83 113 4.0 9.0 0.00 0.00 0.00 39 1018.9
20210616161735 83 150 3.0 9.0 0.00 0.00 0.00 38 1018.9
20210616161640 83 161 4.0 9.0 0.00 0.00 0.00 37 1018.9
20210616161541 83 135 5.0 9.0 0.00 0.00 0.00 38 1018.9
20210616161423 83 125 5.0 9.0 0.00 0.00 0.00 39 1018.9
20210616161325 83 165 5.0 11.0 0.00 0.00 0.00 40 1018.9
20210616161227 83 163 4.0 11.0 0.00 0.00 0.00 40 1018.9
20210616161129 83 153 4.0 11.0 0.00 0.00 0.00 41 1018.9
20210616161036 83 144 4.0 11.0 0.00 0.00 0.00 41 1018.9
20210616160937 83 144 4.0 11.0 0.00 0.00 0.00 41 1018.9
20210616160837 83 163 4.0 11.0 0.00 0.00 0.00 41 1018.9
20210616160736 82 158 5.0 11.0 0.00 0.00 0.00 39 1019.0
20210616160629 82 136 6.0 11.0 0.00 0.00 0.00 38 1019.0
20210616160531 82 146 6.0 11.0 0.00 0.00 0.00 37 1018.9
20210616160428 82 130 7.0 11.0 0.00 0.00 0.00 38 1018.9
20210616160324 82 144 7.0 11.0 0.00 0.00 0.00 37 1019.0
20210616160227 82 156 7.0 11.0 0.00 0.00 0.00 37 1019.0
20210616160128 82 122 6.0 12.0 0.00 0.00 0.00 38 1019.0
20210616160032 82 121 6.0 10.0 0.00 0.00 0.00 38 1019.0
20210616155932 82 128 5.0 9.0 0.00 0.00 0.00 38 1019.0
20210616155835 82 138 4.0 9.0 0.00 0.00 0.00 39 1018.9
20210616155741 82 126 4.0 9.0 0.00 0.00 0.00 39 1018.9
20210616155624 82 124 4.0 9.0 0.00 0.00 0.00 39 1018.9
20210616155527 82 145 5.0 9.0 0.00 0.00 0.00 38 1018.9
20210616155429 82 128 5.0 9.0 0.00 0.00 0.00 38 1019.0
20210616155331 82 132 5.0 9.0 0.00 0.00 0.00 40 1019.0
20210616155233 81 150 5.0 10.0 0.00 0.00 0.00 40 1019.0
20210616155139 81 148 5.0 10.0 0.00 0.00 0.00 39 1018.9
20210616155041 81 136 4.0 10.0 0.00 0.00 0.00 40 1018.9
20210616154924 81 166 4.0 10.0 0.00 0.00 0.00 41 1018.9
20210616154826 81 161 4.0 10.0 0.00 0.00 0.00 40 1019.0
20210616154726 81 154 4.0 11.0 0.00 0.00 0.00 39 1019.0
20210616154627 81 192 5.0 11.0 0.00 0.00 0.00 40 1019.0
20210616154533 81 146 4.0 11.0 0.00 0.00 0.00 40 1019.0
20210616154435 80 152 5.0 11.0 0.00 0.00 0.00 39 1019.0
20210616154338 80 140 6.0 11.0 0.00 0.00 0.00 40 1019.1
20210616154240 80 153 5.0 11.0 0.00 0.00 0.00 41 1019.1
20210616154141 80 136 4.0 11.0 0.00 0.00 0.00 40 1019.1
20210616154042 80 150 5.0 11.0 0.00 0.00 0.00 39 1019.1
20210616153928 80 172 6.0 11.0 0.00 0.00 0.00 40 1019.1
20210616153830 80 121 6.0 10.0 0.00 0.00 0.00 41 1019.1
20210616153733 80 127 6.0 10.0 0.00 0.00 0.00 39 1019.2
20210616153635 80 125 7.0 10.0 0.00 0.00 0.00 39 1019.2
20210616153536 80 130 7.0 11.0 0.00 0.00 0.00 39 1019.2
20210616153439 80 126 6.0 11.0 0.00 0.00 0.00 39 1019.2
20210616153325 80 145 5.0 11.0 0.00 0.00 0.00 39 1019.2
20210616153227 80 97 5.0 11.0 0.00 0.00 0.00 39 1019.3
20210616153127 80 111 6.0 11.0 0.00 0.00 0.00 39 1019.3
20210616153029 80 153 6.0 11.0 0.00 0.00 0.00 38 1019.3
20210616152930 80 106 6.0 11.0 0.00 0.00 0.00 39 1019.3
20210616152831 80 145 5.0 11.0 0.00 0.00 0.00 39 1019.3
20210616152738 80 111 6.0 11.0 0.00 0.00 0.00 39 1019.3
20210616152639 80 138 6.0 11.0 0.00 0.00 0.00 40 1019.3
20210616152540 80 105 5.0 10.0 0.00 0.00 0.00 40 1019.3
20210616152442 80 114 5.0 9.0 0.00 0.00 0.00 39 1019.3
20210616152342 79 128 5.0 10.0 0.00 0.00 0.00 41 1019.3
20210616152225 79 144 5.0 10.0 0.00 0.00 0.00 39 1019.3
20210616152131 79 153 6.0 10.0 0.00 0.00 0.00 39 1019.3
20210616152033 79 103 5.0 10.0 0.00 0.00 0.00 40 1019.3
20210616151932 79 153 6.0 10.0 0.00 0.00 0.00 39 1019.3
20210616151834 79 145 6.0 10.0 0.00 0.00 0.00 39 1019.3
20210616151735 79 102 5.0 10.0 0.00 0.00 0.00 40 1019.4
20210616151639 79 126 5.0 10.0 0.00 0.00 0.00 40 1019.3
20210616151524 79 134 6.0 10.0 0.00 0.00 0.00 40 1019.3
20210616151426 79 140 5.0 11.0 0.00 0.00 0.00 41 1019.3
20210616151328 79 150 6.0 11.0 0.00 0.00 0.00 41 1019.3
20210616151229 79 150 6.0 11.0 0.00 0.00 0.00 41 1019.3
20210616151131 79 137 6.0 10.0 0.00 0.00 0.00 41 1019.3
20210616151033 78 115 4.0 9.0 0.00 0.00 0.00 42 1019.3
20210616150935 78 183 3.0 10.0 0.00 0.00 0.00 44 1019.4
20210616150841 78 180 3.0 10.0 0.00 0.00 0.00 43 1019.4
20210616150724 78 132 3.0 10.0 0.00 0.00 0.00 43 1019.3
20210616150625 78 167 3.0 10.0 0.00 0.00 0.00 43 1019.4
20210616150526 78 170 4.0 10.0 0.00 0.00 0.00 42 1019.4
20210616150428 78 134 4.0 11.0 0.00 0.00 0.00 41 1019.5
20210616150329 78 86 5.0 11.0 0.00 0.00 0.00 40 1019.5
20210616150236 77 121 6.0 11.0 0.00 0.00 0.00 40 1019.5
20210616150136 77 126 5.0 11.0 0.00 0.00 0.00 40 1019.5
20210616150039 77 155 4.0 11.0 0.00 0.00 0.00 42 1019.6
20210616145938 77 134 4.0 11.0 0.00 0.00 0.00 42 1019.5
20210616145839 77 146 4.0 11.0 0.00 0.00 0.00 41 1019.6
20210616145740 77 105 5.0 11.0 0.00 0.00 0.00 41 1019.5
20210616145627 77 129 6.0 11.0 0.00 0.00 0.00 40 1019.6
20210616145528 77 84 5.0 11.0 0.00 0.00 0.00 41 1019.5
20210616145428 77 143 5.0 11.0 0.00 0.00 0.00 41 1019.6
20210616145331 77 156 5.0 11.0 0.00 0.00 0.00 41 1019.6
20210616145233 77 107 6.0 11.0 0.00 0.00 0.00 41 1019.6
20210616145135 77 126 7.0 11.0 0.00 0.00 0.00 41 1019.6
20210616145041 77 117 7.0 11.0 0.00 0.00 0.00 40 1019.7
20210616144924 77 135 7.0 11.0 0.00 0.00 0.00 40 1019.6
20210616144824 77 146 6.0 11.0 0.00 0.00 0.00 40 1019.7
20210616144726 77 107 7.0 12.0 0.00 0.00 0.00 40 1019.7
20210616144628 77 132 7.0 12.0 0.00 0.00 0.00 40 1019.7
20210616144530 77 163 5.0 11.0 0.00 0.00 0.00 41 1019.7
20210616144434 77 161 6.0 11.0 0.00 0.00 0.00 41 1019.7
20210616144336 77 144 6.0 11.0 0.00 0.00 0.00 40 1019.7
20210616144238 77 99 5.0 11.0 0.00 0.00 0.00 41 1019.7
20210616144139 77 163 5.0 10.0 0.00 0.00 0.00 42 1019.6
20210616144043 77 133 5.0 10.0 0.00 0.00 0.00 41 1019.7
20210616143923 77 128 4.0 10.0 0.00 0.00 0.00 42 1019.7
20210616143830 76 119 5.0 11.0 0.00 0.00 0.00 42 1019.6
20210616143731 76 155 6.0 11.0 0.00 0.00 0.00 41 1019.7
20210616143634 76 118 6.0 11.0 0.00 0.00 0.00 43 1019.7
20210616143536 76 117 5.0 11.0 0.00 0.00 0.00 42 1019.7
20210616143437 76 131 5.0 11.0 0.00 0.00 0.00 42 1019.7
20210616143338 76 130 5.0 11.0 0.00 0.00 0.00 43 1019.7
20210616143226 76 148 4.0 11.0 0.00 0.00 0.00 42 1019.7
20210616143127 76 140 6.0 11.0 0.00 0.00 0.00 41 1019.7
20210616143031 76 101 6.0 11.0 0.00 0.00 0.00 42 1019.7
20210616142934 76 137 7.0 12.0 0.00 0.00 0.00 42 1019.7
20210616142836 76 114 6.0 12.0 0.00 0.00 0.00 42 1019.7
20210616142738 75 116 6.0 12.0 0.00 0.00 0.00 44 1019.7
20210616142624 75 143 4.0 12.0 0.00 0.00 0.00 44 1019.7
20210616142527 75 124 4.0 12.0 0.00 0.00 0.00 43 1019.7
20210616142429 75 134 4.0 12.0 0.00 0.00 0.00 43 1019.8
20210616142331 75 126 5.0 12.0 0.00 0.00 0.00 43 1019.8
20210616142232 75 132 6.0 12.0 0.00 0.00 0.00 42 1019.7
20210616142135 75 130 6.0 12.0 0.00 0.00 0.00 42 1019.7
20210616142038 75 136 6.0 12.0 0.00 0.00 0.00 43 1019.7
20210616141923 75 123 7.0 12.0 0.00 0.00 0.00 42 1019.7
20210616141824 75 87 7.0 12.0 0.00 0.00 0.00 42 1019.7
20210616141725 75 111 6.0 12.0 0.00 0.00 0.00 43 1019.7
20210616141629 75 94 6.0 11.0 0.00 0.00 0.00 43 1019.8
20210616141531 75 119 6.0 11.0 0.00 0.00 0.00 43 1019.7
20210616141433 75 85 6.0 11.0 0.00 0.00 0.00 42 1019.7
20210616141340 74 130 6.0 14.0 0.00 0.00 0.00 42 1019.7
20210616141242 74 88 5.0 14.0 0.00 0.00 0.00 43 1019.7
20210616141124 74 115 6.0 14.0 0.00 0.00 0.00 43 1019.7
20210616141025 74 115 6.0 14.0 0.00 0.00 0.00 43 1019.7
20210616140927 74 124 6.0 14.0 0.00 0.00 0.00 43 1019.8
20210616140828 74 101 6.0 14.0 0.00 0.00 0.00 43 1019.7
20210616140734 74 129 7.0 14.0 0.00 0.00 0.00 43 1019.7
20210616140633 74 100 6.0 14.0 0.00 0.00 0.00 44 1019.7
20210616140535 74 138 5.0 13.0 0.00 0.00 0.00 43 1019.7
20210616140436 74 101 6.0 12.0 0.00 0.00 0.00 43 1019.7
20210616140340 74 103 6.0 13.0 0.00 0.00 0.00 44 1019.6
20210616140241 74 150 5.0 13.0 0.00 0.00 0.00 45 1019.6
20210616140126 74 79 5.0 13.0 0.00 0.00 0.00 44 1019.6
20210616140029 74 135 6.0 13.0 0.00 0.00 0.00 43 1019.7
20210616135930 73 96 6.0 13.0 0.00 0.00 0.00 43 1019.7
20210616135830 73 98 5.0 12.0 0.00 0.00 0.00 44 1019.7
20210616135732 73 108 6.0 12.0 0.00 0.00 0.00 44 1019.7
20210616135633 73 117 6.0 15.0 0.00 0.00 0.00 43 1019.7
20210616135541 73 123 8.0 15.0 0.00 0.00 0.00 43 1019.8
20210616135441 73 121 8.0 15.0 0.00 0.00 0.00 43 1019.7
20210616135323 73 119 6.0 15.0 0.00 0.00 0.00 43 1019.8
20210616135224 73 66 7.0 15.0 0.00 0.00 0.00 44 1019.8
20210616135124 73 113 7.0 15.0 0.00 0.00 0.00 44 1019.8
20210616135025 73 69 6.0 15.0 0.00 0.00 0.00 43 1019.8
20210616134931 73 89 7.0 15.0 0.00 0.00 0.00 43 1019.8
20210616134834 73 141 8.0 15.0 0.00 0.00 0.00 43 1019.7
20210616134735 73 82 7.0 15.0 0.00 0.00 0.00 44 1019.8
20210616134637 73 124 7.0 12.0 0.00 0.00 0.00 44 1019.7
20210616134539 73 138 6.0 12.0 0.00 0.00 0.00 44 1019.7
20210616134440 73 101 6.0 12.0 0.00 0.00 0.00 44 1019.7
20210616134326 73 134 6.0 12.0 0.00 0.00 0.00 45 1019.8
20210616134229 73 159 7.0 12.0 0.00 0.00 0.00 44 1019.8
20210616134129 73 132 6.0 12.0 0.00 0.00 0.00 45 1019.8
20210616134033 73 111 6.0 12.0 0.00 0.00 0.00 45 1019.8
20210616133934 73 113 7.0 12.0 0.00 0.00 0.00 45 1019.7
20210616133837 73 127 8.0 12.0 0.00 0.00 0.00 45 1019.8
20210616133737 72 140 7.0 10.0 0.00 0.00 0.00 45 1019.8
20210616133624 72 160 6.0 13.0 0.00 0.00 0.00 47 1019.8
20210616133525 72 112 5.0 13.0 0.00 0.00 0.00 47 1019.8
20210616133428 72 150 5.0 13.0 0.00 0.00 0.00 48 1019.8
20210616133328 72 106 4.0 13.0 0.00 0.00 0.00 48 1019.8
20210616133231 72 117 4.0 13.0 0.00 0.00 0.00 48 1019.8
20210616133132 72 124 5.0 13.0 0.00 0.00 0.00 48 1019.8
20210616133037 72 139 6.0 13.0 0.00 0.00 0.00 48 1019.8
20210616132940 72 129 6.0 13.0 0.00 0.00 0.00 49 1019.8
20210616132842 72 165 5.0 13.0 0.00 0.00 0.00 49 1019.8
20210616132723 72 123 5.0 11.0 0.00 0.00 0.00 49 1019.8
20210616132626 72 99 6.0 11.0 0.00 0.00 0.00 49 1019.8
20210616132528 72 102 6.0 11.0 0.00 0.00 0.00 50 1019.8
20210616132435 72 144 5.0 11.0 0.00 0.00 0.00 50 1019.9
20210616132336 72 123 5.0 11.0 0.00 0.00 0.00 50 1019.9
20210616132238 72 156 5.0 11.0 0.00 0.00 0.00 51 1019.8
20210616132138 71 130 5.0 11.0 0.00 0.00 0.00 50 1019.8
20210616132040 71 141 6.0 11.0 0.00 0.00 0.00 50 1019.9
20210616131941 71 142 6.0 11.0 0.00 0.00 0.00 50 1019.9
20210616131828 71 91 5.0 11.0 0.00 0.00 0.00 51 1019.8
20210616131729 71 89 5.0 10.0 0.00 0.00 0.00 51 1019.8
20210616131630 71 139 5.0 10.0 0.00 0.00 0.00 51 1019.8
20210616131530 71 138 5.0 10.0 0.00 0.00 0.00 52 1019.9
20210616131431 71 106 5.0 10.0 0.00 0.00 0.00 52 1019.8
20210616131332 71 124 5.0 10.0 0.00 0.00 0.00 53 1019.8
20210616131239 71 134 5.0 10.0 0.00 0.00 0.00 53 1019.9
20210616131140 71 146 4.0 8.0 0.00 0.00 0.00 54 1019.8
20210616131041 71 128 4.0 8.0 0.00 0.00 0.00 53 1019.8
20210616130923 71 145 4.0 8.0 0.00 0.00 0.00 54 1019.8
20210616130825 70 171 4.0 8.0 0.00 0.00 0.00 54 1019.8
20210616130727 70 84 5.0 8.0 0.00 0.00 0.00 54 1019.8
20210616130632 70 133 5.0 8.0 0.00 0.00 0.00 55 1019.7
20210616130535 70 143 5.0 8.0 0.00 0.00 0.00 55 1019.8
20210616130437 70 103 6.0 8.0 0.00 0.00 0.00 55 1019.7
20210616130337 70 123 5.0 8.0 0.00 0.00 0.00 56 1019.7
20210616130239 70 132 4.0 8.0 0.00 0.00 0.00 56 1019.7
20210616130141 70 140 4.0 7.0 0.00 0.00 0.00 56 1019.7
20210616130041 70 113 4.0 9.0 0.00 0.00 0.00 58 1019.7
20210616125922 70 147 3.0 9.0 0.00 0.00 0.00 58 1019.7
20210616125825 70 69 3.0 9.0 0.00 0.00 0.00 58 1019.7
20210616125728 70 128 3.0 9.0 0.00 0.00 0.00 58 1019.7
20210616125630 69 149 4.0 9.0 0.00 0.00 0.00 58 1019.7
20210616125531 69 134 4.0 9.0 0.00 0.00 0.00 59 1019.7
20210616125431 69 152 4.0 9.0 0.00 0.00 0.00 60 1019.7
20210616125337 69 126 4.0 9.0 0.00 0.00 0.00 60 1019.7
20210616125239 69 117 4.0 9.0 0.00 0.00 0.00 60 1019.7
20210616125139 69 103 5.0 8.0 0.00 0.00 0.00 60 1019.8
20210616125041 69 128 5.0 8.0 0.00 0.00 0.00 60 1019.7
20210616124941 69 142 4.0 8.0 0.00 0.00 0.00 62 1019.8
20210616124823 69 140 3.0 8.0 0.00 0.00 0.00 61 1019.7
20210616124727 69 130 3.0 8.0 0.00 0.00 0.00 61 1019.8
20210616124628 68 123 4.0 9.0 0.00 0.00 0.00 62 1019.7
20210616124528 68 138 4.0 9.0 0.00 0.00 0.00 63 1019.7
20210616124429 68 150 3.0 9.0 0.00 0.00 0.00 64 1019.7
20210616124329 68 111 3.0 9.0 0.00 0.00 0.00 64 1019.7
20210616124231 68 152 2.0 10.0 0.00 0.00 0.00 64 1019.6
20210616124135 68 129 3.0 10.0 0.00 0.00 0.00 63 1019.7
20210616124035 68 133 3.0 10.0 0.00 0.00 0.00 63 1019.7
20210616123936 68 111 4.0 10.0 0.00 0.00 0.00 64 1019.7
20210616123838 68 146 4.0 10.0 0.00 0.00 0.00 64 1019.7
20210616123738 68 123 4.0 10.0 0.00 0.00 0.00 64 1019.6
20210616123638 67 139 4.0 10.0 0.00 0.00 0.00 64 1019.6
20210616123523 67 89 5.0 10.0 0.00 0.00 0.00 65 1019.6
20210616123424 67 155 5.0 10.0 0.00 0.00 0.00 65 1019.6
20210616123325 67 127 4.0 10.0 0.00 0.00 0.00 66 1019.6
20210616123226 67 95 4.0 10.0 0.00 0.00 0.00 67 1019.6
20210616123127 67 136 3.0 9.0 0.00 0.00 0.00 67 1019.6
20210616123028 67 96 3.0 9.0 0.00 0.00 0.00 67 1019.5
20210616122929 67 110 3.0 9.0 0.00 0.00 0.00 67 1019.5
20210616122833 67 166 4.0 9.0 0.00 0.00 0.00 68 1019.5
20210616122733 67 143 5.0 9.0 0.00 0.00 0.00 68 1019.5
20210616122633 66 140 4.0 9.0 0.00 0.00 0.00 69 1019.5
20210616122535 66 144 3.0 9.0 0.00 0.00 0.00 69 1019.5
20210616122437 66 153 3.0 9.0 0.00 0.00 0.00 69 1019.5
20210616122339 66 136 3.0 9.0 0.00 0.00 0.00 70 1019.5
20210616122223 66 103 4.0 9.0 0.00 0.00 0.00 70 1019.5
20210616122122 66 92 4.0 9.0 0.00 0.00 0.00 70 1019.5
20210616122042 66 135 5.0 9.0 0.00 0.00 0.00 70 1019.5
20210616121942 66 134 4.0 9.0 0.00 0.00 0.00 71 1019.5
20210616121824 66 104 3.0 8.0 0.00 0.00 0.00 72 1019.5
20210616121724 66 109 3.0 7.0 0.00 0.00 0.00 72 1019.5
20210616121628 65 121 4.0 7.0 0.00 0.00 0.00 72 1019.5
20210616121529 65 72 4.0 7.0 0.00 0.00 0.00 73 1019.6
20210616121431 65 89 4.0 7.0 0.00 0.00 0.00 74 1019.6
20210616121333 65 67 3.0 7.0 0.00 0.00 0.00 74 1019.6
20210616121236 65 86 2.0 7.0 0.00 0.00 0.00 74 1019.6
20210616121136 65 117 2.0 7.0 0.00 0.00 0.00 74 1019.6
20210616121022 65 78 2.0 7.0 0.00 0.00 0.00 75 1019.6
20210616120923 64 98 3.0 7.0 0.00 0.00 0.00 75 1019.6
20210616120826 64 95 2.0 7.0 0.00 0.00 0.00 76 1019.6
20210616120728 64 117 2.0 7.0 0.00 0.00 0.00 76 1019.6
20210616120629 64 80 2.0 5.0 0.00 0.00 0.00 77 1019.5
20210616120530 64 102 2.0 5.0 0.00 0.00 0.00 77 1019.6
20210616120426 64 96 1.0 5.0 0.00 0.00 0.00 77 1019.5
20210616120329 64 112 1.0 5.0 0.00 0.00 0.00 77 1019.5
20210616120230 64 136 2.0 5.0 0.00 0.00 0.00 77 1019.5
20210616120131 63 108 2.0 5.0 0.00 0.00 0.00 77 1019.5
20210616120033 63 155 3.0 5.0 0.00 0.00 0.00 78 1019.5
20210616115936 63 109 3.0 5.0 0.00 0.00 0.00 78 1019.5
20210616115838 63 78 3.0 6.0 0.00 0.00 0.00 78 1019.5
20210616115723 63 105 2.0 7.0 0.00 0.00 0.00 79 1019.5
20210616115625 63 103 3.0 7.0 0.00 0.00 0.00 79 1019.5
20210616115526 63 106 3.0 7.0 0.00 0.00 0.00 79 1019.5
20210616115430 63 115 3.0 7.0 0.00 0.00 0.00 79 1019.5
20210616115331 63 81 2.0 7.0 0.00 0.00 0.00 79 1019.5
20210616115232 62 94 2.0 7.0 0.00 0.00 0.00 80 1019.4
20210616115139 62 94 2.0 7.0 0.00 0.00 0.00 80 1019.4
20210616115041 62 98 3.0 7.0 0.00 0.00 0.00 80 1019.4
20210616114922 62 99 2.0 7.0 0.00 0.00 0.00 80 1019.4
20210616114824 62 100 1.0 6.0 0.00 0.00 0.00 80 1019.4
20210616114723 62 111 2.0 6.0 0.00 0.00 0.00 81 1019.4
20210616114625 62 109 3.0 6.0 0.00 0.00 0.00 81 1019.4
20210616114531 62 82 3.0 6.0 0.00 0.00 0.00 81 1019.4
20210616114430 62 92 3.0 5.0 0.00 0.00 0.00 81 1019.4
20210616114332 61 76 2.0 5.0 0.00 0.00 0.00 82 1019.4
20210616114233 61 86 2.0 5.0 0.00 0.00 0.00 82 1019.4
20210616114133 61 104 1.0 3.0 0.00 0.00 0.00 82 1019.4
20210616114032 61 103 2.0 3.0 0.00 0.00 0.00 82 1019.3
20210616113935 61 103 1.0 3.0 0.00 0.00 0.00 82 1019.3
20210616113839 61 115 1.0 3.0 0.00 0.00 0.00 82 1019.3
20210616113740 61 89 1.0 3.0 0.00 0.00 0.00 82 1019.3
20210616113641 61 88 1.0 3.0 0.00 0.00 0.00 82 1019.3
20210616113522 61 82 2.0 3.0 0.00 0.00 0.00 82 1019.2
20210616113424 61 105 2.0 3.0 0.00 0.00 0.00 82 1019.2
20210616113327 61 105 2.0 3.0 0.00 0.00 0.00 82 1019.2
20210616113232 61 78 2.0 3.0 0.00 0.00 0.00 82 1019.1
20210616113134 61 88 2.0 3.0 0.00 0.00 0.00 82 1019.2
20210616113036 61 86 1.0 3.0 0.00 0.00 0.00 82 1019.1
20210616112937 61 86 1.0 3.0 0.00 0.00 0.00 82 1019.1
20210616112839 60 94 2.0 3.0 0.00 0.00 0.00 82 1019.1
20210616112741 60 96 2.0 3.0 0.00 0.00 0.00 82 1019.1
20210616112625 60 96 2.0 3.0 0.00 0.00 0.00 82 1019.2
20210616112528 60 97 2.0 3.0 0.00 0.00 0.00 82 1019.2
20210616112429 60 92 2.0 3.0 0.00 0.00 0.00 82 1019.2
20210616112331 60 87 2.0 3.0 0.00 0.00 0.00 82 1019.2
20210616112234 60 84 2.0 3.0 0.00 0.00 0.00 82 1019.2
20210616112135 60 84 2.0 3.0 0.00 0.00 0.00 82 1019.2
20210616112040 60 99 1.0 2.0 0.00 0.00 0.00 81 1019.2
20210616111922 60 99 1.0 2.0 0.00 0.00 0.00 81 1019.1
20210616111823 60 99 1.0 3.0 0.00 0.00 0.00 81 1019.1
20210616111725 60 99 1.0 3.0 0.00 0.00 0.00 81 1019.0
20210616111627 60 99 1.0 3.0 0.00 0.00 0.00 81 1019.1
20210616111529 60 99 1.0 3.0 0.00 0.00 0.00 81 1019.1
20210616111435 60 99 2.0 3.0 0.00 0.00 0.00 81 1019.1
20210616111336 60 99 1.0 5.0 0.00 0.00 0.00 81 1019.1
20210616111237 60 99 1.0 5.0 0.00 0.00 0.00 81 1019.1
20210616111138 60 99 1.0 5.0 0.00 0.00 0.00 82 1019.1
20210616111040 60 99 1.0 5.0 0.00 0.00 0.00 82 1019.1
20210616110939 60 99 1.0 5.0 0.00 0.00 0.00 82 1019.1
20210616110825 60 100 1.0 5.0 0.00 0.00 0.00 82 1019.1
20210616110726 60 100 2.0 5.0 0.00 0.00 0.00 82 1019.1
20210616110626 60 101 2.0 5.0 0.00 0.00 0.00 82 1019.0
20210616110529 60 91 3.0 5.0 0.00 0.00 0.00 82 1019.0
20210616110431 60 91 2.0 5.0 0.00 0.00 0.00 82 1019.1
20210616110332 60 85 2.0 5.0 0.00 0.00 0.00 82 1019.1
20210616110234 60 103 2.0 5.0 0.00 0.00 0.00 82 1019.0
20210616110139 60 106 2.0 5.0 0.00 0.00 0.00 82 1019.0
20210616110043 60 107 2.0 5.0 0.00 0.00 0.00 82 1019.0
20210616105941 60 102 2.0 5.0 0.00 0.00 0.00 82 1019.0
20210616105823 60 109 2.0 5.0 0.00 0.00 0.00 82 1019.0
20210616105724 60 103 2.0 4.0 0.00 0.00 0.00 82 1019.0
20210616105625 60 110 2.0 4.0 0.00 0.00 0.00 82 1019.0
20210616105531 60 107 2.0 5.0 0.00 0.00 0.00 82 1019.0
20210616105434 60 101 2.0 4.0 0.00 0.00 0.00 82 1019.0
20210616105335 60 101 2.0 5.0 0.00 0.00 0.00 81 1019.0
20210616105237 60 99 2.0 3.0 0.00 0.00 0.00 81 1019.0
20210616105140 60 98 1.0 3.0 0.00 0.00 0.00 81 1019.0
20210616105024 60 98 2.0 3.0 0.00 0.00 0.00 81 1019.0
20210616104929 60 98 2.0 3.0 0.00 0.00 0.00 81 1019.0
20210616104831 61 109 1.0 3.0 0.00 0.00 0.00 81 1019.0
20210616104733 61 113 1.0 3.0 0.00 0.00 0.00 81 1019.0
20210616104636 61 113 1.0 3.0 0.00 0.00 0.00 81 1019.0
20210616104538 61 113 1.0 5.0 0.00 0.00 0.00 81 1019.0
20210616104440 61 113 0.0 5.0 0.00 0.00 0.00 81 1018.9
20210616104325 61 113 0.0 5.0 0.00 0.00 0.00 81 1018.9
20210616104228 61 113 0.0 5.0 0.00 0.00 0.00 81 1018.9
20210616104128 61 113 1.0 5.0 0.00 0.00 0.00 81 1018.9
20210616104030 61 115 1.0 5.0 0.00 0.00 0.00 81 1018.9
20210616103932 61 113 2.0 5.0 0.00 0.00 0.00 81 1018.8
20210616103835 61 93 2.0 5.0 0.00 0.00 0.00 81 1018.8
20210616103738 61 94 3.0 5.0 0.00 0.00 0.00 81 1018.8
20210616103639 61 94 3.0 5.0 0.00 0.00 0.00 81 1018.8
20210616103540 61 88 3.0 5.0 0.00 0.00 0.00 81 1018.8
20210616103441 61 91 3.0 5.0 0.00 0.00 0.00 81 1018.8
20210616103323 61 86 2.0 3.0 0.00 0.00 0.00 81 1018.7
20210616103224 61 85 2.0 3.0 0.00 0.00 0.00 81 1018.7
20210616103130 61 83 2.0 3.0 0.00 0.00 0.00 81 1018.7
20210616103030 61 88 2.0 3.0 0.00 0.00 0.00 81 1018.7
20210616102931 61 98 2.0 3.0 0.00 0.00 0.00 81 1018.6
20210616102831 61 98 2.0 3.0 0.00 0.00 0.00 80 1018.6
20210616102732 61 99 2.0 3.0 0.00 0.00 0.00 80 1018.6
20210616102633 61 100 2.0 3.0 0.00 0.00 0.00 80 1018.6
20210616102534 61 103 2.0 3.0 0.00 0.00 0.00 80 1018.6
20210616102439 61 103 2.0 3.0 0.00 0.00 0.00 80 1018.6
20210616102340 61 101 2.0 3.0 0.00 0.00 0.00 80 1018.6
20210616102241 61 88 2.0 3.0 0.00 0.00 0.00 80 1018.6
20210616102122 61 96 2.0 3.0 0.00 0.00 0.00 80 1018.6
20210616102022 61 97 2.0 3.0 0.00 0.00 0.00 80 1018.6
20210616101924 61 96 2.0 3.0 0.00 0.00 0.00 80 1018.6
20210616101829 61 102 2.0 3.0 0.00 0.00 0.00 80 1018.6
20210616101731 61 102 2.0 3.0 0.00 0.00 0.00 80 1018.6
20210616101633 61 104 2.0 3.0 0.00 0.00 0.00 80 1018.6
20210616101535 61 107 2.0 3.0 0.00 0.00 0.00 80 1018.6
20210616101437 61 101 2.0 3.0 0.00 0.00 0.00 80 1018.5
20210616101340 61 92 2.0 3.0 0.00 0.00 0.00 80 1018.5
20210616101224 61 102 2.0 3.0 0.00 0.00 0.00 80 1018.5
20210616101126 61 107 2.0 3.0 0.00 0.00 0.00 80 1018.6
20210616101027 61 110 1.0 3.0 0.00 0.00 0.00 80 1018.6
20210616100929 61 110 0.0 3.0 0.00 0.00 0.00 79 1018.6
20210616100831 61 111 0.0 3.0 0.00 0.00 0.00 79 1018.6
20210616100733 61 111 1.0 3.0 0.00 0.00 0.00 79 1018.6
20210616100638 62 110 1.0 3.0 0.00 0.00 0.00 79 1018.6
20210616100540 62 110 1.0 3.0 0.00 0.00 0.00 79 1018.5
20210616100440 62 110 1.0 3.0 0.00 0.00 0.00 79 1018.5
20210616100341 62 105 1.0 3.0 0.00 0.00 0.00 79 1018.5
20210616100224 62 107 2.0 3.0 0.00 0.00 0.00 79 1018.4
20210616100125 62 107 2.0 3.0 0.00 0.00 0.00 79 1018.5
20210616100029 62 105 2.0 3.0 0.00 0.00 0.00 79 1018.5
20210616095929 62 107 2.0 2.0 0.00 0.00 0.00 79 1018.4
20210616095830 62 107 2.0 2.0 0.00 0.00 0.00 79 1018.4
20210616095731 62 107 2.0 2.0 0.00 0.00 0.00 79 1018.4
20210616095633 62 107 1.0 2.0 0.00 0.00 0.00 79 1018.4
20210616095534 62 107 1.0 2.0 0.00 0.00 0.00 79 1018.4
20210616095436 62 107 1.0 2.0 0.00 0.00 0.00 79 1018.4
20210616095322 62 107 1.0 2.0 0.00 0.00 0.00 78 1018.3
20210616095223 62 107 1.0 2.0 0.00 0.00 0.00 78 1018.4
20210616095125 62 107 1.0 2.0 0.00 0.00 0.00 78 1018.3
20210616095027 62 107 1.0 2.0 0.00 0.00 0.00 78 1018.3
20210616094928 62 107 1.0 2.0 0.00 0.00 0.00 78 1018.3
20210616094830 62 109 1.0 2.0 0.00 0.00 0.00 78 1018.4
20210616094735 62 109 1.0 2.0 0.00 0.00 0.00 78 1018.3
20210616094637 62 109 1.0 3.0 0.00 0.00 0.00 78 1018.3
20210616094538 62 109 1.0 3.0 0.00 0.00 0.00 78 1018.3
20210616094440 62 109 1.0 3.0 0.00 0.00 0.00 78 1018.4
20210616094322 62 109 1.0 3.0 0.00 0.00 0.00 78 1018.3
20210616094224 62 109 1.0 3.0 0.00 0.00 0.00 78 1018.3
20210616094131 62 107 1.0 3.0 0.00 0.00 0.00 78 1018.3
20210616094033 62 107 1.0 3.0 0.00 0.00 0.00 78 1018.3
20210616093933 62 104 2.0 3.0 0.00 0.00 0.00 78 1018.2
20210616093835 62 97 1.0 3.0 0.00 0.00 0.00 78 1018.2
20210616093738 62 106 1.0 3.0 0.00 0.00 0.00 77 1018.2
20210616093641 62 128 0.0 2.0 0.00 0.00 0.00 77 1018.2
20210616093527 62 127 0.0 3.0 0.00 0.00 0.00 77 1018.2
20210616093428 62 127 0.0 3.0 0.00 0.00 0.00 77 1018.3
20210616093330 62 127 0.0 3.0 0.00 0.00 0.00 77 1018.2
20210616093232 62 127 1.0 3.0 0.00 0.00 0.00 77 1018.2
20210616093134 62 127 1.0 3.0 0.00 0.00 0.00 77 1018.2
20210616093036 62 127 0.0 3.0 0.00 0.00 0.00 77 1018.2
20210616092942 62 124 0.0 3.0 0.00 0.00 0.00 77 1018.1
20210616092824 62 125 1.0 3.0 0.00 0.00 0.00 77 1018.1
20210616092726 62 124 2.0 3.0 0.00 0.00 0.00 77 1018.2
20210616092625 62 122 2.0 3.0 0.00 0.00 0.00 77 1018.2
20210616092528 62 101 1.0 3.0 0.00 0.00 0.00 77 1018.1
20210616092429 62 111 1.0 3.0 0.00 0.00 0.00 77 1018.1
20210616092335 62 111 1.0 3.0 0.00 0.00 0.00 77 1018.2
20210616092238 62 111 1.0 3.0 0.00 0.00 0.00 77 1018.1
20210616092141 62 108 1.0 3.0 0.00 0.00 0.00 77 1018.1
20210616092023 63 109 2.0 3.0 0.00 0.00 0.00 77 1018.1
20210616091925 63 115 2.0 3.0 0.00 0.00 0.00 77 1018.1
20210616091827 63 117 2.0 3.0 0.00 0.00 0.00 77 1018.1
20210616091732 63 151 1.0 2.0 0.00 0.00 0.00 77 1018.1
20210616091634 63 113 1.0 2.0 0.00 0.00 0.00 77 1018.0
20210616091535 63 120 1.0 3.0 0.00 0.00 0.00 77 1018.0
20210616091436 63 123 1.0 3.0 0.00 0.00 0.00 77 1018.0
20210616091336 63 123 1.0 3.0 0.00 0.00 0.00 77 1018.0
20210616091237 63 126 1.0 3.0 0.00 0.00 0.00 77 1018.0
20210616091138 63 130 1.0 3.0 0.00 0.00 0.00 77 1018.0
20210616091023 63 128 1.0 3.0 0.00 0.00 0.00 76 1018.0
20210616090924 63 128 1.0 3.0 0.00 0.00 0.00 76 1018.0
20210616090825 63 129 1.0 3.0 0.00 0.00 0.00 76 1017.9
20210616090726 63 127 1.0 3.0 0.00 0.00 0.00 76 1017.9
20210616090628 63 92 1.0 3.0 0.00 0.00 0.00 76 1017.9
20210616090529 63 88 1.0 3.0 0.00 0.00 0.00 76 1017.9
20210616090435 63 130 1.0 3.0 0.00 0.00 0.00 76 1017.9
20210616090337 63 129 1.0 3.0 0.00 0.00 0.00 76 1017.9
20210616090239 63 129 1.0 3.0 0.00 0.00 0.00 76 1018.0
20210616090141 63 130 1.0 3.0 0.00 0.00 0.00 76 1018.0
20210616090044 63 115 2.0 3.0 0.00 0.00 0.00 75 1018.0
20210616085940 63 134 2.0 3.0 0.00 0.00 0.00 75 1017.9
20210616085824 63 119 1.0 3.0 0.00 0.00 0.00 75 1018.0
20210616085727 63 130 1.0 2.0 0.00 0.00 0.00 74 1018.0
20210616085629 63 130 1.0 2.0 0.00 0.00 0.00 74 1018.0
20210616085530 63 130 1.0 2.0 0.00 0.00 0.00 74 1018.0
20210616085433 63 130 1.0 2.0 0.00 0.00 0.00 74 1018.0
20210616085335 63 130 1.0 2.0 0.00 0.00 0.00 73 1018.0
20210616085240 63 131 1.0 3.0 0.00 0.00 0.00 73 1018.0
20210616085144 63 130 1.0 3.0 0.00 0.00 0.00 73 1018.0
20210616085044 63 130 1.0 3.0 0.00 0.00 0.00 73 1018.0
20210616084943 63 131 1.0 3.0 0.00 0.00 0.00 73 1018.0